GFSCGP_prec_kuchsnow_156.txt.gz
Snowfall_Accumulation
0.0 0.0 0.0 0.0 0.0 0.0 0.0 0.0 0.0 0.0 0.0 0.0 0.0 0.0 0.0 0.0 0.0 0.0 0.0 0.0 0.0 0.0 0.0 0.0 0.0 0.0 0.0 0.0 0.0 0.0 0.0 0.0 0.0 0.0 0.0 0.0 0.0 0.0 0.0 0.0 0.0 0.0 0.0 0.0
0.0 0.0 0.0 0.0 0.0 0.0 0.0 0.0 0.0 0.0 0.0 0.0 0.0 0.0 0.0 0.0 0.0 0.0 0.0 0.0 0.0 0.0 0.0 0.0 0.0 0.0 0.0 0.0 0.0 0.0 0.0 0.0 0.0 0.0 0.0 0.0 0.0 0.0 0.0 0.0 0.0 0.0 0.0 0.0
0.0 0.0 0.0 0.0 0.0 0.0 0.0 0.0 0.0 0.0 0.0 0.0 0.0 0.0 0.0 0.0 0.0 0.0 0.0 0.0 0.0 0.0 0.0 0.0 0.0 0.0 0.0 0.0 0.0 0.0 0.0 0.0 0.0 0.0 0.0 0.0 0.0 0.0 0.0 0.0 0.0 0.0 0.0 0.0
0.0 0.0 0.0 0.0 0.0 0.0 0.0 0.0 0.0 0.0 0.0 0.8 0.0 0.5 0.0 0.0 0.0 0.0 0.0 0.0 0.0 0.0 0.0 0.0 0.0 0.0 0.0 0.0 0.0 0.0 0.0 0.0 0.0 0.0 0.0 0.0 0.0 0.0 0.0 0.0 0.0 0.0 0.0 0.0
0.0 0.0 0.0 0.0 0.0 0.0 0.0 0.0 0.0 0.0 0.0 0.0 0.2 1.3 0.0 0.0 0.4 0.4 0.0 0.0 0.1 0.0 0.0 0.0 0.0 0.0 0.0 0.0 0.0 0.0 0.0 0.0 0.0 0.0 0.0 0.0 0.0 0.0 0.0 0.0 0.0 0.0 0.0 0.0
0.0 0.0 0.0 0.0 0.0 0.0 0.0 0.0 0.0 0.0 0.0 2.0 0.0 0.0 0.0 0.3 2.1 1.6 1.8 0.0 0.2 0.2 0.0 0.0 0.0 0.0 0.0 0.0 0.0 0.0 0.0 0.0 0.0 0.0 0.0 0.0 0.0 0.0 0.0 0.0 0.0 0.0 0.0 0.0
0.0 0.0 0.0 0.0 0.0 0.0 0.0 0.0 2.4 3.0 3.1 0.5 0.2 0.4 1.0 0.7 0.5 1.5 4.0 2.0 0.3 0.5 0.3 0.2 0.0 0.8 0.5 0.1 0.1 0.0 0.0 0.0 0.0 0.0 0.0 0.0 0.0 0.0 0.1 0.1 0.0 0.0 0.0 0.0
0.1 1.5 0.0 0.0 0.0 0.0 0.1 0.0 0.7 7.5 5.8 1.8 0.5 2.2 4.2 0.8 0.3 0.6 0.7 4.0 0.7 1.0 0.9 1.3 4.0 1.6 1.0 0.6 0.6 0.6 0.0 0.1 0.0 0.0 0.0 0.0 0.0 0.1 0.1 0.1 0.1 0.1 0.0 0.0
1.3 3.0 0.0 0.0 0.0 0.0 0.0 0.0 0.0 3.1 0.9 5.5 4.4 4.5 2.8 0.5 0.9 0.6 3.2 2.5 2.7 1.4 1.8 3.4 3.7 1.5 0.8 4.7 7.3 2.4 1.6 0.2 0.1 0.0 0.0 0.1 0.0 0.0 0.1 0.1 0.0 0.1 0.1 0.0
1.1 8.7 0.0 0.0 0.0 0.0 0.0 0.0 1.5 4.2 10.1 9.1 1.0 7.4 12.6 8.9 5.1 6.2 9.6 6.7 5.4 2.8 2.4 2.6 5.7 1.9 1.8 8.5 6.9 2.9 0.8 1.2 0.7 0.0 0.0 0.1 0.1 0.2 0.2 0.1 0.1 0.2 0.2 0.2
0.0 6.1 0.0 0.0 0.0 0.0 0.0 0.0 0.2 0.2 0.6 7.0 10.0 11.9 3.6 9.6 9.4 10.0 12.1 10.9 7.0 5.4 6.2 3.7 4.9 2.8 1.8 4.2 7.5 6.2 4.1 4.6 4.4 1.7 0.6 0.2 0.9 0.2 0.2 0.3 0.8 1.2 0.9 0.8
0.0 0.8 0.3 0.0 0.0 0.0 0.0 0.0 0.1 4.2 2.7 6.4 13.0 18.1 6.1 2.2 3.2 4.1 7.3 11.7 9.0 5.4 8.6 6.4 3.9 3.9 2.7 3.0 3.4 6.4 6.6 8.1 8.5 7.1 5.3 1.7 2.3 2.2 1.4 1.8 1.6 1.9 2.0 0.6
0.1 0.1 0.8 0.5 0.0 0.0 0.0 0.0 0.0 0.5 2.4 12.4 17.0 19.8 2.7 1.9 2.5 3.4 6.2 7.9 9.2 7.6 6.4 7.9 6.6 4.2 5.3 3.5 6.3 5.9 6.1 4.4 5.8 10.4 11.8 4.0 5.1 3.9 4.8 5.8 4.5 4.5 3.9 2.8
0.0 0.4 2.1 5.0 3.4 1.3 1.9 0.7 0.2 1.7 12.6 8.4 6.3 7.1 4.2 3.3 3.4 3.5 3.1 4.0 5.0 6.1 6.5 6.9 6.3 5.9 3.7 2.5 4.1 2.4 1.7 2.5 3.7 4.0 8.7 9.7 9.5 11.3 9.2 7.7 9.5 10.6 8.1 6.2
0.0 3.2 2.5 2.3 3.0 1.2 1.9 5.6 3.1 2.1 3.0 5.0 7.8 4.4 3.8 3.3 3.0 3.7 3.4 2.7 1.9 2.3 1.6 2.4 3.8 4.6 3.7 2.0 1.4 0.7 0.2 0.0 0.1 0.2 0.2 3.0 10.5 10.7 10.8 10.7 15.4 12.2 14.9 15.1
0.0 5.5 5.7 4.8 3.2 1.1 5.1 6.9 3.4 2.4 3.7 4.5 2.8 3.5 2.9 2.3 2.4 3.0 2.4 1.0 0.2 0.1 0.2 0.5 0.3 0.8 1.5 0.6 0.2 0.0 0.0 0.0 0.0 0.0 0.0 0.0 0.0 0.3 3.6 4.7 5.4 4.7 9.4 12.9
0.4 1.7 3.2 4.1 0.8 0.6 3.9 9.4 5.8 2.7 1.0 1.1 0.5 1.9 1.9 1.9 1.5 1.9 1.0 0.3 0.0 0.1 1.4 5.7 2.8 3.1 0.4 1.2 0.0 0.7 0.0 0.0 0.0 0.0 0.0 0.0 0.0 0.0 0.0 0.2 0.0 1.2 0.9 1.6
0.4 0.9 1.1 1.7 1.6 8.8 5.7 1.3 0.5 0.2 0.4 0.4 0.1 0.8 0.5 0.2 1.3 1.4 1.0 0.6 0.8 0.5 1.1 3.9 7.3 5.5 3.4 2.3 1.8 1.3 0.9 0.9 0.0 0.0 0.0 0.0 0.0 0.0 0.0 0.0 0.0 0.0 0.0 0.1
0.0 0.4 3.6 6.5 2.2 3.8 1.4 0.8 0.5 0.5 1.1 0.6 0.6 0.6 0.4 0.7 0.2 2.2 1.8 1.1 0.9 0.7 0.5 0.3 0.9 4.6 4.8 4.2 3.3 2.2 1.4 1.7 2.2 2.9 2.0 1.1 1.0 0.0 0.0 0.0 0.0 0.0 0.0 0.0
0.0 0.1 2.8 6.1 6.5 5.1 1.1 0.3 0.0 0.0 1.3 0.4 0.2 0.3 0.4 0.3 0.5 2.9 2.5 2.2 1.0 0.4 0.0 0.0 0.0 0.0 0.0 0.0 2.5 2.8 2.8 1.3 2.9 3.9 4.8 5.5 3.8 3.7 3.3 2.0 3.6 1.3 0.0 0.4
1.4 1.0 5.3 4.2 5.0 0.7 0.1 0.5 0.2 1.9 3.4 0.4 0.1 0.1 0.0 0.2 1.6 2.7 1.8 3.2 2.9 0.0 0.0 0.0 0.0 0.0 0.1 0.0 0.0 0.9 1.6 2.8 4.6 2.9 3.3 3.9 6.6 7.4 8.2 5.8 7.9 8.6 4.4 1.4
0.1 1.8 1.4 2.5 6.6 3.6 0.2 0.8 1.3 1.3 0.5 0.2 0.2 0.1 0.1 0.8 2.4 3.8 4.7 5.2 2.1 0.2 0.0 0.0 0.0 0.0 0.0 0.0 0.0 0.2 0.6 0.3 0.6 1.2 2.3 2.1 2.5 4.6 5.4 5.8 5.9 7.1 7.5 6.5
3.7 0.9 1.2 1.4 2.8 1.7 0.9 1.4 0.6 0.2 0.3 0.5 0.3 0.1 0.6 2.7 5.8 7.0 6.9 5.5 2.5 0.5 0.0 0.0 0.0 0.0 0.0 0.0 0.0 0.1 0.6 0.1 0.0 0.0 0.7 1.0 1.5 1.4 1.8 3.4 3.9 3.9 4.1 5.3
2.1 0.0 4.6 4.5 4.0 2.0 1.3 0.8 0.3 0.4 1.7 1.2 0.3 0.7 1.3 2.5 3.5 3.7 4.1 2.2 1.2 0.4 0.1 0.0 0.0 0.0 0.0 0.0 0.0 0.2 0.1 0.0 0.0 0.0 0.0 0.2 0.3 0.4 0.4 0.6 1.1 1.7 2.1 3.3
1.3 1.6 3.5 6.8 3.8 1.5 1.7 2.0 1.3 1.1 0.7 0.5 0.2 0.1 0.1 0.0 0.3 0.0 0.2 0.2 0.2 0.0 0.1 0.1 0.0 0.0 0.0 0.0 0.0 0.0 0.1 0.0 0.0 0.0 0.0 0.0 0.0 0.0 0.1 0.5 0.5 0.7 1.8 1.3
0.7 2.6 6.5 9.2 6.5 4.9 5.6 4.0 3.0 3.3 2.3 1.0 0.8 0.5 0.1 0.1 0.2 0.1 0.5 0.1 0.0 0.1 0.0 0.0 0.0 0.0 0.1 0.0 0.1 0.1 0.0 0.0 0.0 0.0 0.0 0.2 0.3 0.1 0.0 0.0 0.2 0.1 0.2 0.3

GFSCGP_prec_kuchsnow_159.txt.gz
Snowfall_Accumulation
0.0 0.0 0.0 0.0 0.0 0.0 0.0 0.0 0.0 0.0 0.0 0.0 0.0 0.0 0.0 0.0 0.0 0.0 0.0 0.0 0.0 0.0 0.0 0.0 0.0 0.0 0.0 0.0 0.0 0.0 0.0 0.0 0.0 0.0 0.0 0.0 0.0 0.0 0.0 0.0 0.0 0.0 0.0 0.0
0.0 0.0 0.0 0.0 0.0 0.0 0.0 0.0 0.0 0.0 0.0 0.0 0.0 0.0 0.0 0.0 0.0 0.0 0.0 0.0 0.0 0.0 0.0 0.0 0.0 0.0 0.0 0.0 0.0 0.0 0.0 0.0 0.0 0.0 0.0 0.0 0.0 0.0 0.0 0.0 0.0 0.0 0.0 0.0
0.0 0.0 0.0 0.0 0.0 0.0 0.0 0.0 0.0 0.0 0.0 0.0 0.0 0.0 0.0 0.0 0.0 0.0 0.0 0.0 0.0 0.0 0.0 0.0 0.0 0.0 0.0 0.0 0.0 0.0 0.0 0.0 0.0 0.0 0.0 0.0 0.0 0.0 0.0 0.0 0.0 0.0 0.0 0.0
0.0 0.0 0.0 0.0 0.0 0.0 0.0 0.0 0.0 0.0 0.0 0.8 0.0 0.5 0.0 0.0 0.0 0.0 0.0 0.0 0.0 0.0 0.0 0.0 0.0 0.0 0.0 0.0 0.0 0.0 0.0 0.0 0.0 0.0 0.0 0.0 0.0 0.0 0.0 0.0 0.0 0.0 0.0 0.0
0.0 0.0 0.0 0.0 0.0 0.0 0.0 0.0 0.0 0.0 0.0 0.0 0.2 1.3 0.0 0.0 0.4 0.4 0.0 0.0 0.1 0.0 0.0 0.0 0.0 0.0 0.0 0.0 0.0 0.0 0.0 0.0 0.0 0.0 0.0 0.0 0.0 0.0 0.0 0.0 0.0 0.0 0.0 0.0
0.0 0.0 0.0 0.0 0.0 0.0 0.0 0.0 0.0 0.0 0.0 2.0 0.0 0.0 0.0 0.3 2.1 1.6 1.8 0.0 0.2 0.2 0.0 0.0 0.0 0.0 0.0 0.0 0.0 0.0 0.0 0.0 0.0 0.0 0.0 0.0 0.0 0.0 0.0 0.0 0.0 0.0 0.0 0.0
0.0 0.0 0.0 0.0 0.0 0.0 0.0 0.0 2.4 3.0 3.1 0.5 0.2 0.4 1.0 0.7 0.5 1.5 4.0 2.0 0.3 0.5 0.3 0.2 0.0 0.8 0.5 0.1 0.1 0.0 0.0 0.0 0.0 0.0 0.0 0.0 0.0 0.0 0.1 0.1 0.0 0.0 0.0 0.0
0.1 1.5 0.0 0.0 0.0 0.0 0.1 0.0 0.7 7.5 5.8 1.8 0.5 2.2 4.2 0.8 0.3 0.6 0.7 4.0 0.7 1.0 0.9 1.3 4.0 1.6 1.0 0.6 0.6 0.6 0.0 0.1 0.0 0.0 0.0 0.0 0.0 0.1 0.1 0.1 0.1 0.1 0.0 0.0
1.3 3.0 0.0 0.0 0.0 0.0 0.0 0.0 0.0 3.1 0.9 5.5 4.4 4.5 2.8 0.5 0.9 0.6 3.2 2.5 2.7 1.4 1.8 3.4 3.7 1.5 0.8 4.7 7.3 2.4 1.6 0.2 0.1 0.0 0.0 0.1 0.0 0.0 0.1 0.1 0.0 0.1 0.1 0.0
1.1 8.7 0.0 0.0 0.0 0.0 0.0 0.0 1.5 4.2 10.1 9.1 1.0 7.4 12.6 8.9 5.1 6.2 9.6 6.7 5.4 2.8 2.4 2.6 5.7 1.9 1.8 8.5 6.9 2.9 0.8 1.2 0.7 0.0 0.0 0.1 0.1 0.2 0.2 0.1 0.1 0.2 0.2 0.2
0.0 6.1 0.0 0.0 0.0 0.0 0.0 0.0 0.2 0.2 0.6 7.0 10.0 11.9 3.6 9.6 9.4 10.0 12.1 10.9 7.0 5.4 6.2 3.7 4.9 2.8 1.8 4.2 7.5 6.2 4.1 4.6 4.4 1.7 0.6 0.2 0.9 0.2 0.2 0.3 0.8 1.2 0.9 0.8
0.0 0.8 0.3 0.0 0.0 0.0 0.0 0.0 0.1 4.2 2.7 6.4 13.0 18.1 6.1 2.2 3.2 4.1 7.3 11.7 9.0 5.4 8.6 6.4 3.9 3.9 2.7 3.0 3.4 6.4 6.6 8.1 8.5 7.1 5.3 1.7 2.3 2.2 1.4 1.8 1.6 1.9 2.0 0.6
0.1 0.1 0.8 0.5 0.0 0.0 0.0 0.0 0.0 0.5 2.4 12.4 17.0 19.8 2.7 1.9 2.5 3.4 6.2 7.9 9.2 7.6 6.4 7.9 6.6 4.2 5.3 3.5 6.3 5.9 6.1 4.4 5.8 10.4 11.8 4.0 5.1 3.9 4.8 5.8 4.5 4.5 3.9 2.8
0.0 0.4 2.1 5.0 3.4 1.3 1.9 0.7 0.2 1.7 12.7 8.4 6.3 7.1 4.2 3.3 3.4 3.5 3.1 4.0 5.0 6.1 6.5 6.9 6.3 5.9 3.7 2.5 4.1 2.4 1.7 2.5 3.7 4.0 8.7 9.7 9.5 11.3 9.2 7.7 9.5 10.6 8.1 6.2
0.0 3.7 2.5 2.3 3.0 1.2 1.9 5.6 3.1 2.1 3.0 5.0 7.8 4.4 3.8 3.3 3.0 3.7 3.4 2.7 1.9 2.3 1.6 2.4 3.8 4.6 3.7 2.0 1.4 0.7 0.2 0.0 0.1 0.2 0.2 3.0 10.5 10.7 10.8 10.7 15.4 12.2 14.9 15.1
0.0 5.5 5.8 4.8 3.2 1.1 5.1 6.9 3.4 2.4 3.7 4.5 2.8 3.5 2.9 2.3 2.4 3.0 2.4 1.0 0.2 0.1 0.2 0.5 0.3 0.8 1.5 0.6 0.2 0.0 0.0 0.0 0.0 0.0 0.0 0.0 0.0 0.3 3.6 4.7 5.4 4.7 9.4 12.9
0.4 2.0 3.8 4.7 0.8 0.6 3.9 9.4 5.8 2.7 1.0 1.1 0.5 1.9 1.9 1.9 1.5 1.9 1.0 0.3 0.0 0.1 1.4 5.7 2.8 3.1 0.4 1.2 0.0 0.7 0.0 0.0 0.0 0.0 0.0 0.0 0.0 0.0 0.0 0.2 0.0 1.2 0.9 1.6
0.8 1.3 1.5 2.1 1.8 9.7 5.8 1.3 0.5 0.2 0.4 0.4 0.1 0.8 0.5 0.2 1.3 1.4 1.0 0.6 0.8 0.5 1.1 3.9 7.3 5.5 3.4 2.3 1.8 1.3 0.9 0.9 0.0 0.0 0.0 0.0 0.0 0.0 0.0 0.0 0.0 0.0 0.0 0.1
0.0 0.5 3.9 6.5 2.2 3.8 1.4 0.8 0.5 0.5 1.1 0.6 0.6 0.6 0.4 0.7 0.2 2.2 1.8 1.1 0.9 0.7 0.5 0.3 0.9 4.6 4.8 4.2 3.3 2.2 1.4 1.7 2.2 2.9 2.0 1.1 1.0 0.0 0.0 0.0 0.0 0.0 0.0 0.0
0.0 0.1 3.0 6.1 6.5 5.1 1.1 0.3 0.0 0.0 1.3 0.4 0.2 0.3 0.4 0.3 0.5 2.9 2.5 2.2 1.0 0.4 0.0 0.0 0.0 0.0 0.0 0.0 2.5 2.8 2.8 1.3 2.9 3.9 4.8 5.5 3.8 3.7 3.3 2.0 3.6 1.3 0.0 0.4
1.5 1.3 5.5 4.2 5.0 0.7 0.1 0.5 0.2 1.9 3.4 0.4 0.1 0.1 0.0 0.2 1.6 2.7 1.8 3.2 2.9 0.0 0.0 0.0 0.0 0.0 0.1 0.0 0.0 0.9 1.6 2.8 4.6 2.9 3.3 3.9 6.6 7.4 8.2 5.8 7.9 8.6 4.4 1.4
0.1 1.8 1.4 2.5 6.6 3.6 0.2 0.8 1.3 1.3 0.5 0.2 0.2 0.1 0.1 0.8 2.4 3.8 4.7 5.2 2.1 0.2 0.0 0.0 0.0 0.0 0.0 0.0 0.0 0.2 0.6 0.3 0.6 1.2 2.3 2.1 2.5 4.6 5.4 5.8 5.9 7.1 7.5 6.5
4.1 0.9 1.2 1.4 2.8 1.7 0.9 1.4 0.6 0.2 0.3 0.5 0.3 0.1 0.6 2.7 5.8 7.0 6.9 5.5 2.5 0.5 0.0 0.0 0.0 0.0 0.0 0.0 0.0 0.1 0.6 0.1 0.0 0.0 0.7 1.0 1.5 1.4 1.8 3.4 3.9 3.9 4.1 5.3
2.1 0.0 4.6 4.5 4.0 2.0 1.3 0.8 0.3 0.4 1.7 1.2 0.3 0.7 1.3 2.5 3.5 3.7 4.1 2.2 1.2 0.4 0.1 0.0 0.0 0.0 0.0 0.0 0.0 0.2 0.1 0.0 0.0 0.0 0.0 0.2 0.3 0.4 0.4 0.6 1.1 1.7 2.1 3.3
1.3 1.6 3.5 6.8 3.8 1.5 1.7 2.0 1.3 1.1 0.7 0.5 0.2 0.1 0.1 0.0 0.3 0.0 0.2 0.2 0.2 0.0 0.1 0.1 0.0 0.0 0.0 0.0 0.0 0.0 0.1 0.0 0.0 0.0 0.0 0.0 0.0 0.0 0.1 0.5 0.5 0.7 1.8 1.3
0.7 2.6 6.5 9.2 6.5 4.9 5.6 4.0 3.0 3.3 2.3 1.0 0.8 0.5 0.1 0.1 0.2 0.1 0.5 0.1 0.0 0.1 0.0 0.0 0.0 0.0 0.1 0.0 0.1 0.1 0.0 0.0 0.0 0.0 0.0 0.2 0.3 0.1 0.0 0.0 0.2 0.1 0.2 0.3

GFSCGP_prec_kuchsnow_162.txt.gz
Snowfall_Accumulation
0.0 0.0 0.0 0.0 0.0 0.0 0.0 0.0 0.0 0.0 0.0 0.0 0.0 0.0 0.0 0.0 0.0 0.0 0.0 0.0 0.0 0.0 0.0 0.0 0.0 0.0 0.0 0.0 0.0 0.0 0.0 0.0 0.0 0.0 0.0 0.0 0.0 0.0 0.0 0.0 0.0 0.0 0.0 0.0
0.0 0.0 0.0 0.0 0.0 0.0 0.0 0.0 0.0 0.0 0.0 0.0 0.0 0.0 0.0 0.0 0.0 0.0 0.0 0.0 0.0 0.0 0.0 0.0 0.0 0.0 0.0 0.0 0.0 0.0 0.0 0.0 0.0 0.0 0.0 0.0 0.0 0.0 0.0 0.0 0.0 0.0 0.0 0.0
0.0 0.0 0.0 0.0 0.0 0.0 0.0 0.0 0.0 0.0 0.0 0.0 0.0 0.0 0.0 0.0 0.0 0.0 0.0 0.0 0.0 0.0 0.0 0.0 0.0 0.0 0.0 0.0 0.0 0.0 0.0 0.0 0.0 0.0 0.0 0.0 0.0 0.0 0.0 0.0 0.0 0.0 0.0 0.0
0.0 0.0 0.0 0.0 0.0 0.0 0.0 0.0 0.0 0.0 0.0 0.8 0.0 0.5 0.0 0.0 0.0 0.0 0.0 0.0 0.0 0.0 0.0 0.0 0.0 0.0 0.0 0.0 0.0 0.0 0.0 0.0 0.0 0.0 0.0 0.0 0.0 0.0 0.0 0.0 0.0 0.0 0.0 0.0
0.0 0.0 0.0 0.0 0.0 0.0 0.0 0.0 0.0 0.0 0.0 0.0 0.2 1.3 0.0 0.0 0.4 0.4 0.0 0.0 0.1 0.0 0.0 0.0 0.0 0.0 0.0 0.0 0.0 0.0 0.0 0.0 0.0 0.0 0.0 0.0 0.0 0.0 0.0 0.0 0.0 0.0 0.0 0.0
0.0 0.0 0.0 0.0 0.0 0.0 0.0 0.0 0.0 0.0 0.0 2.0 0.0 0.0 0.0 0.3 2.1 1.6 1.8 0.0 0.2 0.2 0.0 0.0 0.0 0.0 0.0 0.0 0.0 0.0 0.0 0.0 0.0 0.0 0.0 0.0 0.0 0.0 0.0 0.0 0.0 0.0 0.0 0.0
0.0 0.0 0.0 0.0 0.0 0.0 0.0 0.0 2.4 3.0 3.1 0.5 0.2 0.4 1.0 0.7 0.5 1.5 4.0 2.0 0.3 0.5 0.3 0.2 0.0 0.8 0.5 0.1 0.1 0.0 0.0 0.0 0.0 0.0 0.0 0.0 0.0 0.0 0.1 0.1 0.0 0.0 0.0 0.0
0.1 1.5 0.0 0.0 0.0 0.0 0.1 0.0 0.7 7.5 5.8 1.8 0.5 2.2 4.2 0.8 0.3 0.6 0.7 4.0 0.7 1.0 0.9 1.3 4.0 1.6 1.0 0.6 0.6 0.6 0.0 0.1 0.0 0.0 0.0 0.0 0.0 0.1 0.1 0.1 0.1 0.1 0.0 0.0
1.3 3.0 0.0 0.0 0.0 0.0 0.0 0.0 0.0 3.1 0.9 5.5 4.4 4.5 2.8 0.5 0.9 0.6 3.2 2.5 2.7 1.4 1.8 3.4 3.7 1.5 0.8 4.7 7.3 2.4 1.6 0.2 0.1 0.0 0.0 0.1 0.0 0.0 0.1 0.1 0.0 0.1 0.1 0.0
1.1 8.7 0.0 0.0 0.0 0.0 0.0 0.0 1.5 4.2 10.1 9.1 1.0 7.4 12.6 8.9 5.1 6.2 9.6 6.7 5.4 2.8 2.4 2.6 5.7 1.9 1.8 8.5 6.9 2.9 0.8 1.2 0.7 0.0 0.0 0.1 0.1 0.2 0.2 0.1 0.1 0.2 0.2 0.2
0.0 6.1 0.0 0.0 0.0 0.0 0.0 0.0 0.2 0.2 0.6 7.0 10.0 11.9 3.6 9.6 9.4 10.0 12.1 10.9 7.0 5.4 6.2 3.7 4.9 2.8 1.8 4.2 7.5 6.2 4.1 4.6 4.4 1.7 0.6 0.2 0.9 0.2 0.2 0.3 0.8 1.2 0.9 0.8
0.0 0.8 0.3 0.0 0.0 0.0 0.0 0.0 0.1 4.2 2.7 6.4 13.0 18.1 6.1 2.2 3.2 4.1 7.3 11.7 9.0 5.4 8.6 6.4 3.9 3.9 2.7 3.0 3.4 6.4 6.6 8.1 8.5 7.1 5.3 1.7 2.3 2.2 1.4 1.8 1.6 1.9 2.0 0.6
0.1 0.1 0.8 0.5 0.0 0.0 0.0 0.0 0.0 0.5 2.4 12.4 17.0 19.8 2.7 1.9 2.5 3.4 6.2 7.9 9.2 7.6 6.4 7.9 6.6 4.2 5.3 3.5 6.3 5.9 6.1 4.4 5.8 10.4 11.8 4.0 5.1 3.9 4.8 5.8 4.5 4.5 3.9 2.8
0.0 0.9 2.4 5.1 3.4 1.3 1.9 0.7 0.2 1.7 12.7 8.4 6.3 7.1 4.2 3.3 3.4 3.5 3.1 4.0 5.0 6.1 6.5 6.9 6.3 5.9 3.7 2.5 4.1 2.4 1.7 2.5 3.7 4.0 8.7 9.7 9.5 11.3 9.2 7.7 9.5 10.6 8.1 6.2
0.0 5.2 2.8 2.5 3.0 1.2 1.9 5.6 3.1 2.1 3.0 5.0 7.8 4.4 3.8 3.3 3.0 3.7 3.4 2.7 1.9 2.3 1.6 2.4 3.8 4.6 3.7 2.0 1.4 0.7 0.2 0.0 0.1 0.2 0.2 3.0 10.5 10.7 10.8 10.7 15.4 12.2 14.9 15.1
0.0 5.6 5.8 4.8 3.2 1.1 5.1 6.9 3.4 2.4 3.7 4.5 2.8 3.5 2.9 2.3 2.4 3.0 2.4 1.0 0.2 0.1 0.2 0.5 0.3 0.8 1.5 0.6 0.2 0.0 0.0 0.0 0.0 0.0 0.0 0.0 0.0 0.3 3.6 4.7 5.4 4.7 9.4 12.9
0.7 2.3 3.8 5.1 0.8 0.6 4.8 9.4 5.8 2.7 1.0 1.1 0.5 1.9 1.9 1.9 1.5 1.9 1.0 0.3 0.0 0.1 1.4 5.7 2.8 3.1 0.4 1.2 0.0 0.7 0.0 0.0 0.0 0.0 0.0 0.0 0.0 0.0 0.0 0.2 0.0 1.2 0.9 1.6
0.8 1.3 3.3 4.4 3.2 13.3 5.8 1.3 0.5 0.2 0.4 0.4 0.1 0.8 0.5 0.2 1.3 1.4 1.0 0.6 0.8 0.5 1.1 3.9 7.3 5.5 3.4 2.3 1.8 1.3 0.9 0.9 0.0 0.0 0.0 0.0 0.0 0.0 0.0 0.0 0.0 0.0 0.0 0.1
0.0 0.9 5.3 8.1 3.3 4.2 1.4 0.8 0.5 0.5 1.1 0.6 0.6 0.6 0.4 0.7 0.2 2.2 1.8 1.1 0.9 0.7 0.5 0.3 0.9 4.6 4.8 4.2 3.3 2.2 1.4 1.7 2.2 2.9 2.0 1.1 1.0 0.0 0.0 0.0 0.0 0.0 0.0 0.0
0.0 0.1 3.9 7.5 7.1 5.2 1.1 0.3 0.0 0.0 1.3 0.4 0.2 0.3 0.4 0.3 0.5 2.9 2.5 2.2 1.0 0.4 0.0 0.0 0.0 0.0 0.0 0.0 2.5 2.8 2.8 1.3 2.9 3.9 4.8 5.5 3.8 3.7 3.3 2.0 3.6 1.3 0.0 0.4
1.5 2.6 8.2 5.8 5.6 0.7 0.1 0.5 0.2 1.9 3.4 0.4 0.1 0.1 0.0 0.2 1.6 2.7 1.8 3.2 2.9 0.0 0.0 0.0 0.0 0.0 0.1 0.0 0.0 0.9 1.6 2.8 4.6 2.9 3.3 3.9 6.6 7.4 8.2 5.8 7.9 8.6 4.4 1.4
0.1 1.8 2.1 4.0 7.9 3.8 0.2 0.8 1.3 1.3 0.5 0.2 0.2 0.1 0.1 0.8 2.4 3.8 4.7 5.2 2.1 0.2 0.0 0.0 0.0 0.0 0.0 0.0 0.0 0.2 0.6 0.3 0.6 1.2 2.3 2.1 2.5 4.6 5.4 5.8 5.9 7.1 7.5 6.5
4.2 0.9 1.3 1.4 2.9 1.7 0.9 1.4 0.6 0.2 0.3 0.5 0.3 0.1 0.6 2.7 5.8 7.0 6.9 5.5 2.5 0.5 0.0 0.0 0.0 0.0 0.0 0.0 0.0 0.1 0.6 0.1 0.0 0.0 0.7 1.0 1.5 1.4 1.8 3.4 3.9 3.9 4.1 5.3
2.1 0.0 4.8 4.6 4.0 2.0 1.3 0.8 0.3 0.4 1.7 1.2 0.3 0.7 1.3 2.5 3.5 3.7 4.1 2.2 1.2 0.4 0.1 0.0 0.0 0.0 0.0 0.0 0.0 0.2 0.1 0.0 0.0 0.0 0.0 0.2 0.3 0.4 0.4 0.6 1.1 1.7 2.1 3.3
1.3 1.6 3.5 6.8 3.8 1.5 1.7 2.0 1.3 1.1 0.7 0.5 0.2 0.1 0.1 0.0 0.3 0.0 0.2 0.2 0.2 0.0 0.1 0.1 0.0 0.0 0.0 0.0 0.0 0.0 0.1 0.0 0.0 0.0 0.0 0.0 0.0 0.0 0.1 0.5 0.5 0.7 1.8 1.3
0.7 2.6 6.5 9.2 6.5 4.9 5.6 4.0 3.0 3.3 2.3 1.0 0.8 0.5 0.1 0.1 0.2 0.1 0.5 0.1 0.0 0.1 0.0 0.0 0.0 0.0 0.1 0.0 0.1 0.1 0.0 0.0 0.0 0.0 0.0 0.2 0.3 0.1 0.0 0.0 0.2 0.1 0.2 0.3

GFSCGP_prec_kuchsnow_165.txt.gz
Snowfall_Accumulation
0.0 0.0 0.0 0.0 0.0 0.0 0.0 0.0 0.0 0.0 0.0 0.0 0.0 0.0 0.0 0.0 0.0 0.0 0.0 0.0 0.0 0.0 0.0 0.0 0.0 0.0 0.0 0.0 0.0 0.0 0.0 0.0 0.0 0.0 0.0 0.0 0.0 0.0 0.0 0.0 0.0 0.0 0.0 0.0
0.0 0.0 0.0 0.0 0.0 0.0 0.0 0.0 0.0 0.0 0.0 0.0 0.0 0.0 0.0 0.0 0.0 0.0 0.0 0.0 0.0 0.0 0.0 0.0 0.0 0.0 0.0 0.0 0.0 0.0 0.0 0.0 0.0 0.0 0.0 0.0 0.0 0.0 0.0 0.0 0.0 0.0 0.0 0.0
0.0 0.0 0.0 0.0 0.0 0.0 0.0 0.0 0.0 0.0 0.0 0.0 0.0 0.0 0.0 0.0 0.0 0.0 0.0 0.0 0.0 0.0 0.0 0.0 0.0 0.0 0.0 0.0 0.0 0.0 0.0 0.0 0.0 0.0 0.0 0.0 0.0 0.0 0.0 0.0 0.0 0.0 0.0 0.0
0.0 0.0 0.0 0.0 0.0 0.0 0.0 0.0 0.0 0.0 0.0 0.8 0.0 0.5 0.0 0.0 0.0 0.0 0.0 0.0 0.0 0.0 0.0 0.0 0.0 0.0 0.0 0.0 0.0 0.0 0.0 0.0 0.0 0.0 0.0 0.0 0.0 0.0 0.0 0.0 0.0 0.0 0.0 0.0
0.0 0.0 0.0 0.0 0.0 0.0 0.0 0.0 0.0 0.0 0.0 0.0 0.2 1.3 0.0 0.0 0.4 0.4 0.0 0.0 0.1 0.0 0.0 0.0 0.0 0.0 0.0 0.0 0.0 0.0 0.0 0.0 0.0 0.0 0.0 0.0 0.0 0.0 0.0 0.0 0.0 0.0 0.0 0.0
0.0 0.0 0.0 0.0 0.0 0.0 0.0 0.0 0.0 0.0 0.0 2.0 0.0 0.0 0.0 0.3 2.1 1.6 1.8 0.0 0.2 0.2 0.0 0.0 0.0 0.0 0.0 0.0 0.0 0.0 0.0 0.0 0.0 0.0 0.0 0.0 0.0 0.0 0.0 0.0 0.0 0.0 0.0 0.0
0.0 0.0 0.0 0.0 0.0 0.0 0.0 0.0 2.4 3.0 3.1 0.5 0.2 0.4 1.0 0.7 0.5 1.5 4.0 2.0 0.3 0.5 0.3 0.2 0.0 0.8 0.5 0.1 0.1 0.0 0.0 0.0 0.0 0.0 0.0 0.0 0.0 0.0 0.1 0.1 0.0 0.0 0.0 0.0
0.1 1.5 0.0 0.0 0.0 0.0 0.1 0.0 0.7 7.5 5.8 1.8 0.5 2.2 4.2 0.8 0.3 0.6 0.7 4.0 0.7 1.0 0.9 1.3 4.0 1.6 1.0 0.6 0.6 0.6 0.0 0.1 0.0 0.0 0.0 0.0 0.0 0.1 0.1 0.1 0.1 0.1 0.0 0.0
1.3 3.0 0.0 0.0 0.0 0.0 0.0 0.0 0.0 3.1 0.9 5.6 4.4 4.5 2.8 0.5 0.9 0.6 3.2 2.5 2.7 1.4 1.8 3.4 3.7 1.5 0.8 4.7 7.3 2.4 1.6 0.2 0.1 0.0 0.0 0.1 0.0 0.0 0.1 0.1 0.0 0.1 0.1 0.0
1.1 8.7 0.0 0.0 0.0 0.0 0.0 0.0 1.5 4.2 10.1 9.2 1.0 7.4 12.6 8.9 5.1 6.2 9.6 6.7 5.4 2.8 2.4 2.6 5.7 1.9 1.8 8.5 6.9 2.9 0.8 1.2 0.7 0.0 0.0 0.1 0.1 0.2 0.2 0.1 0.1 0.2 0.2 0.2
0.0 6.1 0.0 0.0 0.0 0.0 0.0 0.0 0.2 0.2 0.6 7.0 10.0 11.9 3.6 9.6 9.4 10.0 12.1 10.9 7.0 5.4 6.2 3.7 4.9 2.8 1.8 4.2 7.5 6.2 4.1 4.6 4.4 1.7 0.6 0.2 0.9 0.2 0.2 0.3 0.8 1.2 0.9 0.8
0.0 0.9 0.3 0.0 0.0 0.0 0.0 0.0 0.1 4.2 2.7 6.4 13.0 18.1 6.1 2.2 3.2 4.1 7.3 11.7 9.0 5.4 8.6 6.4 3.9 3.9 2.7 3.0 3.4 6.4 6.6 8.1 8.5 7.1 5.3 1.7 2.3 2.2 1.4 1.8 1.6 1.9 2.0 0.6
0.1 0.7 0.8 0.5 0.0 0.0 0.0 0.0 0.0 0.5 2.4 12.4 17.0 19.8 2.7 1.9 2.5 3.4 6.2 7.9 9.2 7.6 6.4 7.9 6.6 4.2 5.3 3.5 6.3 5.9 6.1 4.4 5.8 10.4 11.8 4.0 5.1 3.9 4.8 5.8 4.5 4.5 3.9 2.8
0.0 0.9 2.9 5.4 3.4 1.3 1.9 0.7 0.2 1.7 12.8 8.4 6.3 7.1 4.2 3.3 3.4 3.5 3.1 4.0 5.0 6.1 6.5 6.9 6.3 5.9 3.7 2.5 4.1 2.4 1.7 2.5 3.7 4.0 8.7 9.7 9.5 11.3 9.2 7.7 9.5 10.6 8.1 6.2
0.0 6.4 3.1 2.5 3.0 1.2 1.9 5.6 3.1 2.1 3.0 5.0 7.8 4.4 3.8 3.3 3.0 3.7 3.4 2.7 1.9 2.3 1.6 2.4 3.8 4.6 3.7 2.0 1.4 0.7 0.2 0.0 0.1 0.2 0.2 3.0 10.5 10.7 10.8 10.7 15.4 12.2 14.9 15.1
0.0 6.4 5.8 4.8 3.2 1.1 5.2 6.9 3.4 2.4 3.7 4.5 2.8 3.5 2.9 2.3 2.4 3.0 2.4 1.0 0.2 0.1 0.2 0.5 0.3 0.8 1.5 0.6 0.2 0.0 0.0 0.0 0.0 0.0 0.0 0.0 0.0 0.3 3.6 4.7 5.4 4.7 9.4 12.9
0.7 2.6 3.8 5.7 0.8 0.6 5.6 9.4 5.8 2.7 1.0 1.1 0.5 1.9 1.9 1.9 1.5 1.9 1.0 0.3 0.0 0.1 1.4 5.7 2.8 3.1 0.4 1.2 0.0 0.7 0.0 0.0 0.0 0.0 0.0 0.0 0.0 0.0 0.0 0.2 0.0 1.2 0.9 1.6
0.8 1.4 3.6 5.1 3.2 14.7 5.8 1.3 0.5 0.2 0.4 0.4 0.1 0.8 0.5 0.2 1.3 1.4 1.0 0.6 0.8 0.5 1.1 3.9 7.3 5.5 3.4 2.3 1.8 1.3 0.9 0.9 0.0 0.0 0.0 0.0 0.0 0.0 0.0 0.0 0.0 0.0 0.0 0.1
0.0 0.9 5.8 9.3 3.9 4.2 1.4 0.8 0.5 0.5 1.1 0.6 0.6 0.6 0.4 0.7 0.2 2.2 1.8 1.1 0.9 0.7 0.5 0.3 0.9 4.6 4.8 4.2 3.3 2.2 1.4 1.7 2.2 2.9 2.0 1.1 1.0 0.0 0.0 0.0 0.0 0.0 0.0 0.0
0.0 0.1 4.7 8.4 8.2 5.6 1.1 0.3 0.0 0.0 1.3 0.4 0.2 0.3 0.4 0.3 0.5 2.9 2.5 2.2 1.0 0.4 0.0 0.0 0.0 0.0 0.0 0.0 2.5 2.8 2.8 1.3 2.9 3.9 4.8 5.5 3.8 3.7 3.3 2.0 3.6 1.3 0.0 0.4
1.5 2.7 8.9 6.4 6.9 0.7 0.1 0.5 0.2 1.9 3.4 0.4 0.1 0.1 0.0 0.2 1.6 2.7 1.8 3.2 2.9 0.0 0.0 0.0 0.0 0.0 0.1 0.0 0.0 0.9 1.6 2.8 4.6 2.9 3.3 3.9 6.6 7.4 8.2 5.8 7.9 8.6 4.4 1.4
0.2 2.0 2.3 4.6 9.3 4.6 0.2 0.8 1.3 1.3 0.5 0.2 0.2 0.1 0.1 0.8 2.4 3.8 4.7 5.2 2.1 0.2 0.0 0.0 0.0 0.0 0.0 0.0 0.0 0.2 0.6 0.3 0.6 1.2 2.3 2.1 2.5 4.6 5.4 5.8 5.9 7.1 7.5 6.5
4.2 0.9 1.3 1.5 3.0 1.7 0.9 1.4 0.6 0.2 0.3 0.5 0.3 0.1 0.6 2.7 5.8 7.0 6.9 5.5 2.5 0.5 0.0 0.0 0.0 0.0 0.0 0.0 0.0 0.1 0.6 0.1 0.0 0.0 0.7 1.0 1.5 1.4 1.8 3.4 3.9 3.9 4.1 5.3
2.1 0.0 4.8 4.6 4.0 2.0 1.3 0.8 0.3 0.4 1.7 1.2 0.3 0.7 1.3 2.5 3.5 3.7 4.1 2.2 1.2 0.4 0.1 0.0 0.0 0.0 0.0 0.0 0.0 0.2 0.1 0.0 0.0 0.0 0.0 0.2 0.3 0.4 0.4 0.6 1.1 1.7 2.1 3.3
1.3 1.6 3.5 6.8 3.8 1.5 1.7 2.0 1.3 1.1 0.7 0.5 0.2 0.1 0.1 0.0 0.3 0.0 0.2 0.2 0.2 0.0 0.1 0.1 0.0 0.0 0.0 0.0 0.0 0.0 0.1 0.0 0.0 0.0 0.0 0.0 0.0 0.0 0.1 0.5 0.5 0.7 1.8 1.3
0.7 2.6 6.5 9.2 6.5 4.9 5.6 4.0 3.0 3.3 2.3 1.0 0.8 0.5 0.1 0.1 0.2 0.1 0.5 0.1 0.0 0.1 0.0 0.0 0.0 0.0 0.1 0.0 0.1 0.1 0.0 0.0 0.0 0.0 0.0 0.2 0.3 0.1 0.0 0.0 0.2 0.1 0.2 0.3

GFSCGP_prec_kuchsnow_168.txt.gz
Snowfall_Accumulation
0.0 0.0 0.0 0.0 0.0 0.0 0.0 0.0 0.0 0.0 0.0 0.0 0.0 0.0 0.0 0.0 0.0 0.0 0.0 0.0 0.0 0.0 0.0 0.0 0.0 0.0 0.0 0.0 0.0 0.0 0.0 0.0 0.0 0.0 0.0 0.0 0.0 0.0 0.0 0.0 0.0 0.0 0.0 0.0
0.0 0.0 0.0 0.0 0.0 0.0 0.0 0.0 0.0 0.0 0.0 0.0 0.0 0.0 0.0 0.0 0.0 0.0 0.0 0.0 0.0 0.0 0.0 0.0 0.0 0.0 0.0 0.0 0.0 0.0 0.0 0.0 0.0 0.0 0.0 0.0 0.0 0.0 0.0 0.0 0.0 0.0 0.0 0.0
0.0 0.0 0.0 0.0 0.0 0.0 0.0 0.0 0.0 0.0 0.0 0.0 0.0 0.0 0.0 0.0 0.0 0.0 0.0 0.0 0.0 0.0 0.0 0.0 0.0 0.0 0.0 0.0 0.0 0.0 0.0 0.0 0.0 0.0 0.0 0.0 0.0 0.0 0.0 0.0 0.0 0.0 0.0 0.0
0.0 0.0 0.0 0.0 0.0 0.0 0.0 0.0 0.0 0.0 0.0 0.8 0.0 0.5 0.0 0.0 0.0 0.0 0.0 0.0 0.0 0.0 0.0 0.0 0.0 0.0 0.0 0.0 0.0 0.0 0.0 0.0 0.0 0.0 0.0 0.0 0.0 0.0 0.0 0.0 0.0 0.0 0.0 0.0
0.0 0.0 0.0 0.0 0.0 0.0 0.0 0.0 0.0 0.0 0.0 0.0 0.2 1.3 0.0 0.0 0.4 0.4 0.0 0.0 0.1 0.0 0.0 0.0 0.0 0.0 0.0 0.0 0.0 0.0 0.0 0.0 0.0 0.0 0.0 0.0 0.0 0.0 0.0 0.0 0.0 0.0 0.0 0.0
0.0 0.0 0.0 0.0 0.0 0.0 0.0 0.0 0.0 0.0 0.0 2.0 0.0 0.0 0.0 0.3 2.1 1.6 1.8 0.0 0.2 0.2 0.0 0.0 0.0 0.0 0.0 0.0 0.0 0.0 0.0 0.0 0.0 0.0 0.0 0.0 0.0 0.0 0.0 0.0 0.0 0.0 0.0 0.0
0.0 0.0 0.0 0.0 0.0 0.0 0.0 0.0 2.4 3.0 3.1 0.5 0.2 0.4 1.0 0.7 0.5 1.5 4.0 2.0 0.3 0.5 0.3 0.2 0.0 0.8 0.5 0.1 0.1 0.0 0.0 0.0 0.0 0.0 0.0 0.0 0.0 0.0 0.1 0.1 0.0 0.0 0.0 0.0
0.1 1.5 0.0 0.0 0.0 0.0 0.1 0.0 0.7 7.5 5.8 1.8 0.5 2.2 4.2 0.8 0.3 0.6 0.7 4.0 0.7 1.0 0.9 1.3 4.0 1.6 1.0 0.6 0.6 0.6 0.0 0.1 0.0 0.0 0.0 0.0 0.0 0.1 0.1 0.1 0.1 0.1 0.0 0.0
1.3 3.0 0.0 0.0 0.0 0.0 0.0 0.0 0.0 3.1 0.9 5.6 4.4 4.5 2.8 0.5 0.9 0.6 3.2 2.5 2.7 1.4 1.8 3.4 3.7 1.5 0.8 4.7 7.3 2.4 1.6 0.2 0.1 0.0 0.0 0.1 0.0 0.0 0.1 0.1 0.0 0.1 0.1 0.0
1.1 8.7 0.0 0.0 0.0 0.0 0.0 0.0 1.5 4.2 10.3 9.3 1.0 7.4 12.6 8.9 5.1 6.2 9.6 6.7 5.4 2.8 2.4 2.6 5.7 1.9 1.8 8.5 6.9 2.9 0.8 1.2 0.7 0.0 0.0 0.1 0.1 0.2 0.2 0.1 0.1 0.2 0.2 0.2
0.0 6.1 0.0 0.0 0.0 0.0 0.0 0.0 0.2 0.2 0.6 7.0 10.1 11.9 3.6 9.6 9.4 10.0 12.1 10.9 7.0 5.4 6.2 3.7 4.9 2.8 1.8 4.2 7.5 6.2 4.1 4.6 4.4 1.7 0.6 0.2 0.9 0.2 0.2 0.3 0.8 1.2 0.9 0.8
0.0 0.9 0.3 0.0 0.0 0.0 0.0 0.0 0.1 4.2 2.7 6.4 13.0 18.1 6.1 2.2 3.2 4.1 7.3 11.7 9.0 5.4 8.6 6.4 3.9 3.9 2.7 3.0 3.4 6.4 6.6 8.1 8.5 7.1 5.3 1.7 2.3 2.2 1.4 1.8 1.6 1.9 2.0 0.6
0.1 0.8 0.8 0.5 0.0 0.0 0.0 0.0 0.0 0.5 2.4 12.4 17.3 19.8 2.7 1.9 2.5 3.4 6.2 7.9 9.2 7.6 6.4 7.9 6.6 4.2 5.3 3.5 6.3 5.9 6.1 4.4 5.8 10.4 11.8 4.0 5.1 3.9 4.8 5.8 4.5 4.5 3.9 2.8
0.0 1.3 3.2 5.6 3.4 1.3 1.9 0.7 0.2 1.7 13.1 8.4 6.3 7.1 4.2 3.3 3.4 3.5 3.1 4.0 5.0 6.1 6.5 6.9 6.3 5.9 3.7 2.5 4.1 2.4 1.7 2.5 3.7 4.0 8.7 9.7 9.5 11.3 9.2 7.7 9.5 10.6 8.1 6.2
0.0 6.8 3.1 2.5 3.0 1.2 1.9 5.6 3.1 2.1 3.0 5.3 7.8 4.4 3.8 3.3 3.0 3.7 3.4 2.7 1.9 2.3 1.6 2.4 3.8 4.6 3.7 2.0 1.4 0.7 0.2 0.0 0.1 0.2 0.2 3.0 10.5 10.7 10.8 10.7 15.4 12.2 14.9 15.1
0.0 6.4 5.8 4.8 3.2 1.1 5.2 6.9 3.4 2.4 3.7 4.5 2.8 3.5 2.9 2.3 2.4 3.0 2.4 1.0 0.2 0.1 0.2 0.5 0.3 0.8 1.5 0.6 0.2 0.0 0.0 0.0 0.0 0.0 0.0 0.0 0.0 0.3 3.6 4.7 5.4 4.7 9.4 12.9
0.7 2.7 3.8 6.0 0.8 0.6 6.0 9.4 5.8 2.7 1.0 1.1 0.5 1.9 1.9 1.9 1.5 1.9 1.0 0.3 0.0 0.1 1.4 5.7 2.8 3.1 0.4 1.2 0.0 0.7 0.0 0.0 0.0 0.0 0.0 0.0 0.0 0.0 0.0 0.2 0.0 1.2 0.9 1.6
0.8 1.4 3.8 5.4 3.3 15.8 5.8 1.3 0.5 0.2 0.4 0.4 0.1 0.8 0.5 0.2 1.3 1.4 1.0 0.6 0.8 0.5 1.1 3.9 7.3 5.5 3.4 2.3 1.8 1.3 0.9 0.9 0.0 0.0 0.0 0.0 0.0 0.0 0.0 0.0 0.0 0.0 0.0 0.1
0.0 0.9 6.1 9.5 3.9 4.2 1.4 0.8 0.5 0.5 1.1 0.6 0.6 0.6 0.4 0.7 0.2 2.2 1.8 1.1 0.9 0.7 0.5 0.3 0.9 4.6 4.8 4.2 3.3 2.2 1.4 1.7 2.2 2.9 2.0 1.1 1.0 0.0 0.0 0.0 0.0 0.0 0.0 0.0
0.0 0.1 5.5 8.9 9.1 5.6 1.1 0.3 0.0 0.0 1.3 0.4 0.2 0.3 0.4 0.3 0.5 2.9 2.5 2.2 1.0 0.4 0.0 0.0 0.0 0.0 0.0 0.0 2.5 2.8 2.8 1.3 2.9 3.9 4.8 5.5 3.8 3.7 3.3 2.0 3.6 1.3 0.0 0.4
1.7 3.1 10.2 7.5 8.8 1.2 0.1 0.5 0.2 1.9 3.4 0.4 0.1 0.1 0.0 0.2 1.6 2.7 1.8 3.2 2.9 0.0 0.0 0.0 0.0 0.0 0.1 0.0 0.0 0.9 1.6 2.8 4.6 2.9 3.3 3.9 6.6 7.4 8.2 5.8 7.9 8.6 4.4 1.4
0.2 2.3 2.5 4.9 10.0 4.9 0.2 0.8 1.3 1.3 0.5 0.2 0.2 0.1 0.1 0.8 2.4 3.8 4.7 5.2 2.1 0.2 0.0 0.0 0.0 0.0 0.0 0.0 0.0 0.2 0.6 0.3 0.6 1.2 2.3 2.1 2.5 4.6 5.4 5.8 5.9 7.1 7.5 6.5
4.3 0.9 1.4 1.6 3.0 1.7 0.9 1.4 0.6 0.2 0.3 0.5 0.3 0.1 0.6 2.7 5.8 7.0 6.9 5.5 2.5 0.5 0.0 0.0 0.0 0.0 0.0 0.0 0.0 0.1 0.6 0.1 0.0 0.0 0.7 1.0 1.5 1.4 1.8 3.4 3.9 3.9 4.1 5.3
2.1 0.0 4.8 4.6 4.0 2.0 1.3 0.8 0.3 0.4 1.7 1.2 0.3 0.7 1.3 2.5 3.5 3.7 4.1 2.2 1.2 0.4 0.1 0.0 0.0 0.0 0.0 0.0 0.0 0.2 0.1 0.0 0.0 0.0 0.0 0.2 0.3 0.4 0.4 0.6 1.1 1.7 2.1 3.3
1.3 1.6 3.5 6.8 3.8 1.5 1.7 2.0 1.3 1.1 0.7 0.5 0.2 0.1 0.1 0.0 0.3 0.0 0.2 0.2 0.2 0.0 0.1 0.1 0.0 0.0 0.0 0.0 0.0 0.0 0.1 0.0 0.0 0.0 0.0 0.0 0.0 0.0 0.1 0.5 0.5 0.7 1.8 1.3
0.7 2.6 6.5 9.2 6.5 4.9 5.6 4.0 3.0 3.3 2.3 1.0 0.8 0.5 0.1 0.1 0.2 0.1 0.5 0.1 0.0 0.1 0.0 0.0 0.0 0.0 0.1 0.0 0.1 0.1 0.0 0.0 0.0 0.0 0.0 0.2 0.3 0.1 0.0 0.0 0.2 0.1 0.2 0.3

GFSCGP_prec_kuchsnow_171.txt.gz
Snowfall_Accumulation
0.0 0.0 0.0 0.0 0.0 0.0 0.0 0.0 0.0 0.0 0.0 0.0 0.0 0.0 0.0 0.0 0.0 0.0 0.0 0.0 0.0 0.0 0.0 0.0 0.0 0.0 0.0 0.0 0.0 0.0 0.0 0.0 0.0 0.0 0.0 0.0 0.0 0.0 0.0 0.0 0.0 0.0 0.0 0.0
0.0 0.0 0.0 0.0 0.0 0.0 0.0 0.0 0.0 0.0 0.0 0.0 0.0 0.0 0.0 0.0 0.0 0.0 0.0 0.0 0.0 0.0 0.0 0.0 0.0 0.0 0.0 0.0 0.0 0.0 0.0 0.0 0.0 0.0 0.0 0.0 0.0 0.0 0.0 0.0 0.0 0.0 0.0 0.0
0.0 0.0 0.0 0.0 0.0 0.0 0.0 0.0 0.0 0.0 0.0 0.0 0.0 0.0 0.0 0.0 0.0 0.0 0.0 0.0 0.0 0.0 0.0 0.0 0.0 0.0 0.0 0.0 0.0 0.0 0.0 0.0 0.0 0.0 0.0 0.0 0.0 0.0 0.0 0.0 0.0 0.0 0.0 0.0
0.0 0.0 0.0 0.0 0.0 0.0 0.0 0.0 0.0 0.0 0.0 0.8 0.0 0.5 0.0 0.0 0.0 0.0 0.0 0.0 0.0 0.0 0.0 0.0 0.0 0.0 0.0 0.0 0.0 0.0 0.0 0.0 0.0 0.0 0.0 0.0 0.0 0.0 0.0 0.0 0.0 0.0 0.0 0.0
0.0 0.0 0.0 0.0 0.0 0.0 0.0 0.0 0.0 0.0 0.0 0.0 0.2 1.3 0.0 0.0 0.4 0.4 0.0 0.0 0.1 0.0 0.0 0.0 0.0 0.0 0.0 0.0 0.0 0.0 0.0 0.0 0.0 0.0 0.0 0.0 0.0 0.0 0.0 0.0 0.0 0.0 0.0 0.0
0.0 0.0 0.0 0.0 0.0 0.0 0.0 0.0 0.0 0.0 0.0 2.0 0.0 0.0 0.0 0.3 2.1 1.6 1.8 0.0 0.2 0.2 0.0 0.0 0.0 0.0 0.0 0.0 0.0 0.0 0.0 0.0 0.0 0.0 0.0 0.0 0.0 0.0 0.0 0.0 0.0 0.0 0.0 0.0
0.0 0.0 0.0 0.0 0.0 0.0 0.0 0.0 2.4 3.0 3.1 0.5 0.2 0.4 1.0 0.7 0.5 1.5 4.0 2.0 0.3 0.5 0.3 0.2 0.0 0.8 0.5 0.1 0.1 0.0 0.0 0.0 0.0 0.0 0.0 0.0 0.0 0.0 0.1 0.1 0.0 0.0 0.0 0.0
0.1 1.5 0.0 0.0 0.0 0.0 0.1 0.0 0.7 7.5 5.8 1.8 0.5 2.2 4.2 0.8 0.3 0.6 0.7 4.0 0.7 1.0 0.9 1.3 4.0 1.6 1.0 0.6 0.6 0.6 0.0 0.1 0.0 0.0 0.0 0.0 0.0 0.1 0.1 0.1 0.1 0.1 0.0 0.0
1.3 3.0 0.0 0.0 0.0 0.0 0.0 0.0 0.0 3.1 0.9 5.6 4.4 4.5 2.8 0.5 0.9 0.6 3.2 2.5 2.7 1.4 1.8 3.4 3.7 1.5 0.8 4.7 7.3 2.4 1.6 0.2 0.1 0.0 0.0 0.1 0.0 0.0 0.1 0.1 0.0 0.1 0.1 0.0
1.1 8.7 0.0 0.0 0.0 0.0 0.0 0.0 1.5 4.2 10.9 9.3 1.0 7.4 12.6 8.9 5.1 6.2 9.6 6.7 5.4 2.8 2.4 2.6 5.7 1.9 1.8 8.5 6.9 2.9 0.8 1.2 0.7 0.0 0.0 0.1 0.1 0.2 0.2 0.1 0.1 0.2 0.2 0.2
0.0 6.1 0.0 0.0 0.0 0.0 0.0 0.0 0.2 0.2 0.6 7.2 10.1 11.9 3.6 9.6 9.4 10.0 12.1 10.9 7.0 5.4 6.2 3.7 4.9 2.8 1.8 4.2 7.5 6.2 4.1 4.6 4.4 1.7 0.6 0.2 0.9 0.2 0.2 0.3 0.8 1.2 0.9 0.8
0.0 0.9 0.3 0.0 0.0 0.0 0.0 0.0 0.1 4.2 2.7 6.4 13.0 18.1 6.1 2.2 3.2 4.1 7.3 11.7 9.0 5.4 8.6 6.4 3.9 3.9 2.7 3.0 3.4 6.4 6.6 8.1 8.5 7.1 5.3 1.7 2.3 2.2 1.4 1.8 1.6 1.9 2.0 0.6
0.1 0.8 0.8 0.5 0.0 0.0 0.0 0.0 0.0 0.5 2.4 12.5 17.7 19.8 2.7 1.9 2.5 3.4 6.2 7.9 9.2 7.6 6.4 7.9 6.6 4.2 5.3 3.5 6.3 5.9 6.1 4.4 5.8 10.4 11.8 4.0 5.1 3.9 4.8 5.8 4.5 4.5 3.9 2.8
0.0 1.3 3.3 5.6 3.4 1.3 2.0 0.7 0.2 1.7 13.5 8.4 6.3 7.1 4.2 3.3 3.4 3.5 3.1 4.0 5.0 6.1 6.5 6.9 6.3 5.9 3.7 2.5 4.1 2.4 1.7 2.5 3.7 4.0 8.7 9.7 9.5 11.3 9.2 7.7 9.5 10.6 8.1 6.2
0.0 7.4 3.1 2.5 3.0 1.2 1.9 5.6 3.1 2.1 3.0 5.5 7.8 4.4 3.8 3.3 3.0 3.7 3.4 2.7 1.9 2.3 1.6 2.4 3.8 4.6 3.7 2.0 1.4 0.7 0.2 0.0 0.1 0.2 0.2 3.0 10.5 10.7 10.8 10.7 15.4 12.2 14.9 15.1
0.0 6.4 5.8 4.8 3.2 1.1 5.2 6.9 3.4 2.4 3.7 4.5 2.8 3.5 2.9 2.3 2.4 3.0 2.4 1.0 0.2 0.1 0.2 0.5 0.3 0.8 1.5 0.6 0.2 0.0 0.0 0.0 0.0 0.0 0.0 0.0 0.0 0.3 3.6 4.7 5.4 4.7 9.4 12.9
0.7 2.7 3.8 6.2 0.8 0.6 6.2 9.4 5.8 2.7 1.0 1.1 0.5 1.9 1.9 1.9 1.5 1.9 1.0 0.3 0.0 0.1 1.4 5.7 2.8 3.1 0.4 1.2 0.0 0.7 0.0 0.0 0.0 0.0 0.0 0.0 0.0 0.0 0.0 0.2 0.0 1.2 0.9 1.6
0.8 1.4 3.8 5.6 3.3 16.3 5.8 1.3 0.5 0.2 0.4 0.4 0.1 0.8 0.5 0.2 1.3 1.4 1.0 0.6 0.8 0.5 1.1 3.9 7.3 5.5 3.4 2.3 1.8 1.3 0.9 0.9 0.0 0.0 0.0 0.0 0.0 0.0 0.0 0.0 0.0 0.0 0.0 0.1
0.0 0.9 6.3 10.1 4.2 4.2 1.4 0.8 0.5 0.5 1.1 0.6 0.6 0.6 0.4 0.7 0.2 2.2 1.8 1.1 0.9 0.7 0.5 0.3 0.9 4.6 4.8 4.2 3.3 2.2 1.4 1.7 2.2 2.9 2.0 1.1 1.0 0.0 0.0 0.0 0.0 0.0 0.0 0.0
0.0 0.1 5.7 9.3 9.7 5.7 1.1 0.3 0.0 0.0 1.3 0.4 0.2 0.3 0.4 0.3 0.5 2.9 2.5 2.2 1.0 0.4 0.0 0.0 0.0 0.0 0.0 0.0 2.5 2.8 2.8 1.3 2.9 3.9 4.8 5.5 3.8 3.7 3.3 2.0 3.6 1.3 0.0 0.4
1.7 3.1 10.9 8.2 10.6 2.0 0.1 0.5 0.2 2.0 3.4 0.4 0.1 0.1 0.0 0.2 1.6 2.7 1.8 3.2 2.9 0.0 0.0 0.0 0.0 0.0 0.1 0.0 0.0 0.9 1.6 2.8 4.6 2.9 3.3 3.9 6.6 7.4 8.2 5.8 7.9 8.6 4.4 1.4
0.2 2.5 2.9 5.3 10.8 5.6 0.2 0.8 1.3 1.3 0.5 0.2 0.2 0.1 0.1 0.8 2.4 3.8 4.7 5.2 2.1 0.2 0.0 0.0 0.0 0.0 0.0 0.0 0.0 0.2 0.6 0.3 0.6 1.2 2.3 2.1 2.5 4.6 5.4 5.8 5.9 7.1 7.5 6.5
4.4 0.9 1.4 1.6 3.4 1.7 0.9 1.4 0.6 0.2 0.3 0.5 0.3 0.1 0.6 2.7 5.8 7.0 6.9 5.5 2.5 0.5 0.0 0.0 0.0 0.0 0.0 0.0 0.0 0.1 0.6 0.1 0.0 0.0 0.7 1.0 1.5 1.4 1.8 3.4 3.9 3.9 4.1 5.3
2.1 0.0 4.8 4.6 4.0 2.0 1.3 0.8 0.3 0.4 1.7 1.2 0.3 0.7 1.3 2.5 3.5 3.7 4.1 2.2 1.2 0.4 0.1 0.0 0.0 0.0 0.0 0.0 0.0 0.2 0.1 0.0 0.0 0.0 0.0 0.2 0.3 0.4 0.4 0.6 1.1 1.7 2.1 3.3
1.3 1.6 3.5 6.8 3.8 1.5 1.7 2.0 1.3 1.1 0.7 0.5 0.2 0.1 0.1 0.0 0.3 0.0 0.2 0.2 0.2 0.0 0.1 0.1 0.0 0.0 0.0 0.0 0.0 0.0 0.1 0.0 0.0 0.0 0.0 0.0 0.0 0.0 0.1 0.5 0.5 0.7 1.8 1.3
0.7 2.6 6.5 9.2 6.5 4.9 5.6 4.0 3.0 3.3 2.3 1.0 0.8 0.5 0.1 0.1 0.2 0.1 0.5 0.1 0.0 0.1 0.0 0.0 0.0 0.0 0.1 0.0 0.1 0.1 0.0 0.0 0.0 0.0 0.0 0.2 0.3 0.1 0.0 0.0 0.2 0.1 0.2 0.3

GFSCGP_prec_kuchsnow_177.txt.gz
Snowfall_Accumulation
0.0 0.0 0.0 0.0 0.0 0.0 0.0 0.0 0.0 0.0 0.0 0.0 0.0 0.0 0.0 0.0 0.0 0.0 0.0 0.0 0.0 0.0 0.0 0.0 0.0 0.0 0.0 0.0 0.0 0.0 0.0 0.0 0.0 0.0 0.0 0.0 0.0 0.0 0.0 0.0 0.0 0.0 0.0 0.0
0.0 0.0 0.0 0.0 0.0 0.0 0.0 0.0 0.0 0.0 0.0 0.0 0.0 0.0 0.0 0.0 0.0 0.0 0.0 0.0 0.0 0.0 0.0 0.0 0.0 0.0 0.0 0.0 0.0 0.0 0.0 0.0 0.0 0.0 0.0 0.0 0.0 0.0 0.0 0.0 0.0 0.0 0.0 0.0
0.0 0.0 0.0 0.0 0.0 0.0 0.0 0.0 0.0 0.0 0.0 0.0 0.0 0.0 0.0 0.0 0.0 0.0 0.0 0.0 0.0 0.0 0.0 0.0 0.0 0.0 0.0 0.0 0.0 0.0 0.0 0.0 0.0 0.0 0.0 0.0 0.0 0.0 0.0 0.0 0.0 0.0 0.0 0.0
0.0 0.0 0.0 0.0 0.0 0.0 0.0 0.0 0.0 0.0 0.0 0.8 0.0 0.5 0.0 0.0 0.0 0.0 0.0 0.0 0.0 0.0 0.0 0.0 0.0 0.0 0.0 0.0 0.0 0.0 0.0 0.0 0.0 0.0 0.0 0.0 0.0 0.0 0.0 0.0 0.0 0.0 0.0 0.0
0.0 0.0 0.0 0.0 0.0 0.0 0.0 0.0 0.0 0.0 0.0 0.0 0.2 1.3 0.0 0.0 0.4 0.4 0.0 0.0 0.1 0.0 0.0 0.0 0.0 0.0 0.0 0.0 0.0 0.0 0.0 0.0 0.0 0.0 0.0 0.0 0.0 0.0 0.0 0.0 0.0 0.0 0.0 0.0
0.0 0.0 0.0 0.0 0.0 0.0 0.0 0.0 0.0 0.0 0.0 2.0 0.0 0.0 0.0 0.3 2.1 1.6 1.8 0.0 0.2 0.2 0.0 0.0 0.0 0.0 0.0 0.0 0.0 0.0 0.0 0.0 0.0 0.0 0.0 0.0 0.0 0.0 0.0 0.0 0.0 0.0 0.0 0.0
0.0 0.0 0.0 0.0 0.0 0.0 0.0 0.0 2.4 3.0 3.2 0.5 0.2 0.4 1.0 0.7 0.5 1.5 4.0 2.0 0.3 0.5 0.3 0.2 0.0 0.8 0.5 0.1 0.1 0.0 0.0 0.0 0.0 0.0 0.0 0.0 0.0 0.0 0.1 0.1 0.0 0.0 0.0 0.0
0.1 1.5 0.0 0.0 0.0 0.0 0.1 0.0 0.7 7.6 5.8 1.8 0.5 2.2 4.2 0.8 0.3 0.6 0.7 4.0 0.7 1.0 0.9 1.3 4.0 1.6 1.0 0.6 0.6 0.6 0.0 0.1 0.0 0.0 0.0 0.0 0.0 0.1 0.1 0.1 0.1 0.1 0.0 0.0
1.3 3.0 0.0 0.0 0.0 0.0 0.0 0.0 0.0 3.1 0.9 5.6 4.4 4.5 2.8 0.5 0.9 0.6 3.2 2.5 2.7 1.4 1.8 3.4 3.7 1.5 0.8 4.7 7.3 2.4 1.6 0.2 0.1 0.0 0.0 0.1 0.0 0.0 0.1 0.1 0.0 0.1 0.1 0.0
1.1 8.7 0.0 0.0 0.0 0.0 0.0 0.0 1.5 4.2 14.7 11.5 1.0 7.4 12.6 8.9 5.1 6.2 9.6 6.7 5.4 2.8 2.4 2.6 5.7 1.9 1.8 8.5 6.9 2.9 0.8 1.2 0.7 0.0 0.0 0.1 0.1 0.2 0.2 0.1 0.1 0.2 0.2 0.2
0.0 6.1 0.0 0.0 0.0 0.0 0.0 0.0 0.2 0.2 0.6 9.1 10.5 11.9 3.6 9.6 9.4 10.0 12.1 10.9 7.0 5.4 6.2 3.7 4.9 2.8 1.8 4.2 7.5 6.2 4.1 4.6 4.4 1.7 0.6 0.2 0.9 0.2 0.2 0.3 0.8 1.2 0.9 0.8
0.0 0.9 0.3 0.0 0.0 0.0 0.0 0.0 0.1 4.9 3.7 6.8 13.2 18.1 6.1 2.2 3.2 4.1 7.3 11.7 9.0 5.4 8.6 6.4 3.9 3.9 2.7 3.0 3.4 6.4 6.6 8.1 8.5 7.1 5.3 1.7 2.3 2.2 1.4 1.8 1.6 1.9 2.0 0.6
0.1 1.0 0.9 0.5 0.0 0.0 0.0 0.0 0.0 0.8 2.8 13.5 18.1 19.8 2.7 1.9 2.5 3.4 6.2 7.9 9.2 7.6 6.4 7.9 6.6 4.2 5.3 3.5 6.3 5.9 6.1 4.4 5.8 10.4 11.8 4.0 5.1 3.9 4.8 5.8 4.5 4.5 3.9 2.8
0.0 1.6 3.5 5.7 3.4 1.3 2.3 0.7 0.2 2.0 15.0 8.7 6.9 7.3 4.2 3.3 3.4 3.5 3.1 4.0 5.0 6.1 6.5 6.9 6.3 5.9 3.7 2.5 4.1 2.4 1.7 2.5 3.7 4.0 8.7 9.7 9.5 11.3 9.2 7.7 9.5 10.6 8.1 6.2
0.0 7.6 3.1 2.5 3.0 1.2 1.9 5.6 3.1 2.1 3.1 5.8 7.9 4.4 3.8 3.3 3.0 3.7 3.4 2.7 1.9 2.3 1.6 2.4 3.8 4.6 3.7 2.0 1.4 0.7 0.2 0.0 0.1 0.2 0.2 3.0 10.5 10.7 10.8 10.7 15.4 12.2 14.9 15.1
0.0 6.5 5.8 4.9 3.2 1.1 5.2 6.9 3.4 2.4 3.7 4.5 2.8 3.5 2.9 2.3 2.4 3.0 2.4 1.0 0.2 0.1 0.2 0.5 0.3 0.8 1.5 0.6 0.2 0.0 0.0 0.0 0.0 0.0 0.0 0.0 0.0 0.3 3.6 4.7 5.4 4.7 9.4 12.9
0.7 2.8 4.4 6.8 0.8 0.6 6.6 9.4 5.8 2.7 1.0 1.1 0.5 1.9 1.9 1.9 1.5 1.9 1.0 0.3 0.0 0.1 1.4 5.7 2.8 3.1 0.4 1.2 0.0 0.7 0.0 0.0 0.0 0.0 0.0 0.0 0.0 0.0 0.0 0.2 0.0 1.2 0.9 1.6
0.9 1.5 3.9 5.9 3.3 17.4 5.8 1.3 0.5 0.2 0.4 0.4 0.1 0.8 0.5 0.2 1.3 1.4 1.0 0.6 0.8 0.5 1.1 3.9 7.3 5.5 3.4 2.3 1.8 1.3 0.9 0.9 0.0 0.0 0.0 0.0 0.0 0.0 0.0 0.0 0.0 0.0 0.0 0.1
0.0 0.9 6.6 10.9 4.6 4.2 1.4 0.8 0.5 0.5 1.1 0.6 0.6 0.6 0.4 0.7 0.2 2.2 1.8 1.1 0.9 0.7 0.5 0.3 0.9 4.6 4.8 4.2 3.3 2.2 1.4 1.7 2.2 2.9 2.0 1.1 1.0 0.0 0.0 0.0 0.0 0.0 0.0 0.0
0.0 0.1 5.9 9.5 10.5 5.7 1.1 0.3 0.0 0.0 1.3 0.4 0.2 0.3 0.4 0.3 0.5 2.9 2.5 2.2 1.0 0.4 0.0 0.0 0.0 0.0 0.0 0.0 2.5 2.8 2.8 1.3 2.9 3.9 4.8 5.5 3.8 3.7 3.3 2.0 3.6 1.3 0.0 0.4
2.2 4.0 12.8 10.2 13.5 2.4 0.1 0.5 0.2 2.2 3.9 0.4 0.1 0.1 0.0 0.2 1.6 2.7 1.8 3.2 2.9 0.0 0.0 0.0 0.0 0.0 0.1 0.0 0.0 0.9 1.6 2.8 4.6 2.9 3.3 3.9 6.6 7.4 8.2 5.8 7.9 8.6 4.4 1.4
0.2 3.1 4.5 7.2 12.9 6.6 0.2 0.8 1.7 1.3 0.5 0.2 0.2 0.1 0.1 0.8 2.4 3.8 4.7 5.2 2.1 0.2 0.0 0.0 0.0 0.0 0.0 0.0 0.0 0.2 0.6 0.3 0.6 1.2 2.3 2.1 2.5 4.6 5.4 5.8 5.9 7.1 7.5 6.5
4.7 0.9 1.7 1.8 3.5 1.7 0.9 1.4 0.6 0.2 0.3 0.5 0.3 0.1 0.6 2.7 5.8 7.0 6.9 5.5 2.5 0.5 0.0 0.0 0.0 0.0 0.0 0.0 0.0 0.1 0.6 0.1 0.0 0.0 0.7 1.0 1.5 1.4 1.8 3.4 3.9 3.9 4.1 5.3
2.1 0.0 4.8 5.2 4.0 2.0 1.3 0.8 0.3 0.4 1.7 1.2 0.3 0.7 1.3 2.5 3.5 3.7 4.1 2.2 1.2 0.4 0.1 0.0 0.0 0.0 0.0 0.0 0.0 0.2 0.1 0.0 0.0 0.0 0.0 0.2 0.3 0.4 0.4 0.6 1.1 1.7 2.1 3.3
1.3 1.6 3.5 6.9 3.8 1.5 1.7 2.0 1.3 1.1 0.7 0.5 0.2 0.1 0.1 0.0 0.3 0.0 0.2 0.2 0.2 0.0 0.1 0.1 0.0 0.0 0.0 0.0 0.0 0.0 0.1 0.0 0.0 0.0 0.0 0.0 0.0 0.0 0.1 0.5 0.5 0.7 1.8 1.3
0.7 2.6 7.7 9.8 6.5 6.1 5.6 4.0 3.0 3.3 2.3 1.0 0.8 0.5 0.1 0.1 0.2 0.1 0.5 0.1 0.0 0.1 0.0 0.0 0.0 0.0 0.1 0.0 0.1 0.1 0.0 0.0 0.0 0.0 0.0 0.2 0.3 0.1 0.0 0.0 0.2 0.1 0.2 0.3

GFSCGP_prec_kuchsnow_180.txt.gz
Snowfall_Accumulation
0.0 0.0 0.0 0.0 0.0 0.0 0.0 0.0 0.0 0.0 0.0 0.0 0.0 0.0 0.0 0.0 0.0 0.0 0.0 0.0 0.0 0.0 0.0 0.0 0.0 0.0 0.0 0.0 0.0 0.0 0.0 0.0 0.0 0.0 0.0 0.0 0.0 0.0 0.0 0.0 0.0 0.0 0.0 0.0
0.0 0.0 0.0 0.0 0.0 0.0 0.0 0.0 0.0 0.0 0.0 0.0 0.0 0.0 0.0 0.0 0.0 0.0 0.0 0.0 0.0 0.0 0.0 0.0 0.0 0.0 0.0 0.0 0.0 0.0 0.0 0.0 0.0 0.0 0.0 0.0 0.0 0.0 0.0 0.0 0.0 0.0 0.0 0.0
0.0 0.0 0.0 0.0 0.0 0.0 0.0 0.0 0.0 0.0 0.0 0.0 0.0 0.0 0.0 0.0 0.0 0.0 0.0 0.0 0.0 0.0 0.0 0.0 0.0 0.0 0.0 0.0 0.0 0.0 0.0 0.0 0.0 0.0 0.0 0.0 0.0 0.0 0.0 0.0 0.0 0.0 0.0 0.0
0.0 0.0 0.0 0.0 0.0 0.0 0.0 0.0 0.0 0.0 0.0 0.8 0.0 0.5 0.0 0.0 0.0 0.0 0.0 0.0 0.0 0.0 0.0 0.0 0.0 0.0 0.0 0.0 0.0 0.0 0.0 0.0 0.0 0.0 0.0 0.0 0.0 0.0 0.0 0.0 0.0 0.0 0.0 0.0
0.0 0.0 0.0 0.0 0.0 0.0 0.0 0.0 0.0 0.0 0.0 0.0 0.2 1.3 0.0 0.0 0.4 0.4 0.0 0.0 0.1 0.0 0.0 0.0 0.0 0.0 0.0 0.0 0.0 0.0 0.0 0.0 0.0 0.0 0.0 0.0 0.0 0.0 0.0 0.0 0.0 0.0 0.0 0.0
0.0 0.0 0.0 0.0 0.0 0.0 0.0 0.0 0.0 0.0 0.0 2.0 0.0 0.0 0.0 0.3 2.1 1.6 1.8 0.0 0.2 0.2 0.0 0.0 0.0 0.0 0.0 0.0 0.0 0.0 0.0 0.0 0.0 0.0 0.0 0.0 0.0 0.0 0.0 0.0 0.0 0.0 0.0 0.0
0.0 0.0 0.0 0.0 0.0 0.0 0.0 0.0 2.4 3.0 3.3 0.5 0.2 0.4 1.0 0.7 0.5 1.5 4.0 2.0 0.3 0.5 0.3 0.2 0.0 0.8 0.5 0.1 0.1 0.0 0.0 0.0 0.0 0.0 0.0 0.0 0.0 0.0 0.1 0.1 0.0 0.0 0.0 0.0
0.1 1.5 0.0 0.0 0.0 0.0 0.1 0.0 0.7 7.6 5.8 1.8 0.5 2.2 4.2 0.8 0.3 0.6 0.7 4.0 0.7 1.0 0.9 1.3 4.0 1.6 1.0 0.6 0.6 0.6 0.0 0.1 0.0 0.0 0.0 0.0 0.0 0.1 0.1 0.1 0.1 0.1 0.0 0.0
1.3 3.0 0.0 0.0 0.0 0.0 0.0 0.0 0.0 3.1 0.9 5.6 4.4 4.5 2.8 0.5 0.9 0.6 3.2 2.5 2.7 1.4 1.8 3.4 3.7 1.5 0.8 4.7 7.3 2.4 1.6 0.2 0.1 0.0 0.0 0.1 0.0 0.0 0.1 0.1 0.0 0.1 0.1 0.0
1.1 8.7 0.0 0.0 0.0 0.0 0.0 0.0 1.5 4.2 15.7 12.1 1.0 7.4 12.6 8.9 5.1 6.2 9.6 6.7 5.4 2.8 2.4 2.6 5.7 1.9 1.8 8.5 6.9 2.9 0.8 1.2 0.7 0.0 0.0 0.1 0.1 0.2 0.2 0.1 0.1 0.2 0.2 0.2
0.0 6.1 0.0 0.0 0.0 0.0 0.0 0.0 0.2 0.2 1.5 10.6 11.6 11.9 3.6 9.6 9.4 10.0 12.1 10.9 7.0 5.4 6.2 3.7 4.9 2.8 1.8 4.2 7.5 6.2 4.1 4.6 4.4 1.7 0.6 0.2 0.9 0.2 0.2 0.3 0.8 1.2 0.9 0.8
0.0 0.9 0.3 0.0 0.0 0.0 0.0 0.0 0.1 5.7 4.4 6.8 13.9 18.4 6.1 2.2 3.2 4.1 7.3 11.7 9.0 5.4 8.6 6.4 3.9 3.9 2.7 3.0 3.4 6.4 6.6 8.1 8.5 7.1 5.3 1.7 2.3 2.2 1.4 1.8 1.6 1.9 2.0 0.6
0.1 1.0 0.9 0.5 0.0 0.0 0.0 0.0 0.4 1.8 4.0 14.6 19.3 20.3 2.7 1.9 2.5 3.4 6.2 7.9 9.2 7.6 6.4 7.9 6.6 4.2 5.3 3.5 6.3 5.9 6.1 4.4 5.8 10.4 11.8 4.0 5.1 3.9 4.8 5.8 4.5 4.5 3.9 2.8
0.0 2.1 3.5 5.7 3.4 1.3 2.3 0.7 0.2 2.0 15.7 9.3 7.5 7.3 4.2 3.3 3.4 3.5 3.1 4.0 5.0 6.1 6.5 6.9 6.3 5.9 3.7 2.5 4.1 2.4 1.7 2.5 3.7 4.0 8.7 9.7 9.5 11.3 9.2 7.7 9.5 10.6 8.1 6.2
0.0 8.0 3.1 2.5 3.0 1.2 1.9 5.6 3.1 2.1 3.1 5.8 7.9 4.4 3.8 3.3 3.0 3.7 3.4 2.7 1.9 2.3 1.6 2.4 3.8 4.6 3.7 2.0 1.4 0.7 0.2 0.0 0.1 0.2 0.2 3.0 10.5 10.7 10.8 10.7 15.4 12.2 14.9 15.1
0.0 6.5 5.8 5.1 3.2 1.1 5.3 6.9 3.4 2.4 3.7 4.5 2.8 3.5 2.9 2.3 2.4 3.0 2.4 1.0 0.2 0.1 0.2 0.5 0.3 0.8 1.5 0.6 0.2 0.0 0.0 0.0 0.0 0.0 0.0 0.0 0.0 0.3 3.6 4.7 5.4 4.7 9.4 12.9
0.7 2.8 4.5 6.8 0.8 0.6 7.5 9.4 5.8 2.7 1.0 1.1 0.5 1.9 1.9 1.9 1.5 1.9 1.0 0.3 0.0 0.1 1.4 5.7 2.8 3.1 0.4 1.2 0.0 0.7 0.0 0.0 0.0 0.0 0.0 0.0 0.0 0.0 0.4 0.3 0.0 1.2 0.9 1.6
0.9 1.5 3.9 5.9 3.3 17.9 5.8 1.3 0.5 0.2 0.4 0.4 0.1 0.8 0.5 0.2 1.3 1.4 1.0 0.6 0.8 0.5 1.1 3.9 7.3 5.5 3.4 2.3 1.8 1.3 0.9 0.9 0.0 0.0 0.0 0.0 0.0 1.0 0.8 0.0 0.0 0.0 0.0 0.1
0.0 1.1 6.9 10.9 4.6 4.2 1.4 0.8 0.5 0.5 1.1 0.6 0.6 0.6 0.4 0.7 0.2 2.2 1.8 1.1 0.9 0.7 0.5 0.3 0.9 4.6 4.8 4.2 3.3 2.2 1.4 1.7 2.2 2.9 2.0 1.1 1.5 0.6 0.2 0.0 0.0 0.0 0.0 0.0
0.0 0.1 6.6 9.7 10.5 5.7 1.1 0.3 0.0 0.0 1.3 0.4 0.2 0.3 0.4 0.3 0.5 2.9 2.5 2.2 1.0 0.4 0.0 0.0 0.0 0.0 0.0 0.0 2.5 2.8 2.8 1.3 2.9 3.9 5.4 6.0 4.1 3.8 3.3 2.0 3.6 1.3 0.0 0.4
2.3 4.1 13.1 10.4 13.5 2.4 0.1 0.5 0.2 2.2 3.9 0.4 0.1 0.1 0.0 0.2 1.6 2.7 1.8 3.2 2.9 0.0 0.0 0.0 0.0 0.0 0.1 0.0 0.0 0.9 1.6 2.8 4.6 2.9 4.4 4.4 6.7 7.4 8.2 5.8 7.9 8.6 4.4 1.4
0.6 3.9 5.1 7.7 14.1 7.5 0.2 0.8 1.7 1.3 0.5 0.2 0.2 0.1 0.1 0.8 2.4 3.8 4.7 5.2 2.1 0.2 0.0 0.0 0.0 0.0 0.0 0.0 0.0 0.2 1.7 0.3 0.6 1.5 2.6 2.3 2.5 4.6 5.4 5.8 5.9 7.1 7.5 6.5
4.8 0.9 1.7 1.8 3.5 1.7 0.9 1.4 0.6 0.2 0.3 0.5 0.3 0.1 0.6 2.7 5.8 7.0 6.9 5.5 2.5 0.5 0.0 0.0 0.0 0.0 0.0 0.0 0.0 0.1 0.6 0.1 0.0 0.1 0.9 1.0 1.5 1.4 1.8 3.4 3.9 3.9 4.1 5.3
2.1 0.0 4.8 5.2 4.0 2.0 1.3 0.8 0.3 0.4 1.7 1.2 0.3 0.7 1.3 2.5 3.5 3.7 4.1 2.2 1.2 0.4 0.1 0.0 0.0 0.0 0.0 0.0 0.0 0.2 0.1 0.0 0.0 0.0 0.0 0.2 0.3 0.4 0.4 0.6 1.1 1.7 2.1 3.3
1.3 1.6 3.5 6.9 3.8 1.5 1.7 2.0 1.3 1.1 0.7 0.5 0.2 0.1 0.1 0.0 0.3 0.0 0.2 0.2 0.2 0.0 0.1 0.1 0.0 0.0 0.0 0.0 0.0 0.0 0.1 0.0 0.0 0.0 0.0 0.0 0.0 0.0 0.1 0.5 0.5 0.7 1.8 1.3
0.7 2.6 7.7 9.8 6.5 6.1 5.6 4.0 3.0 3.3 2.3 1.0 0.8 0.5 0.1 0.1 0.2 0.1 0.5 0.1 0.0 0.1 0.0 0.0 0.0 0.0 0.1 0.0 0.1 0.1 0.0 0.0 0.0 0.0 0.0 0.2 0.3 0.1 0.0 0.0 0.2 0.1 0.2 0.3

GFSCGP_prec_kuchsnow_183.txt.gz
Snowfall_Accumulation
0.0 0.0 0.0 0.0 0.0 0.0 0.0 0.0 0.0 0.0 0.0 0.0 0.0 0.0 0.0 0.0 0.0 0.0 0.0 0.0 0.0 0.0 0.0 0.0 0.0 0.0 0.0 0.0 0.0 0.0 0.0 0.0 0.0 0.0 0.0 0.0 0.0 0.0 0.0 0.0 0.0 0.0 0.0 0.0
0.0 0.0 0.0 0.0 0.0 0.0 0.0 0.0 0.0 0.0 0.0 0.0 0.0 0.0 0.0 0.0 0.0 0.0 0.0 0.0 0.0 0.0 0.0 0.0 0.0 0.0 0.0 0.0 0.0 0.0 0.0 0.0 0.0 0.0 0.0 0.0 0.0 0.0 0.0 0.0 0.0 0.0 0.0 0.0
0.0 0.0 0.0 0.0 0.0 0.0 0.0 0.0 0.0 0.0 0.0 0.0 0.0 0.0 0.0 0.0 0.0 0.0 0.0 0.0 0.0 0.0 0.0 0.0 0.0 0.0 0.0 0.0 0.0 0.0 0.0 0.0 0.0 0.0 0.0 0.0 0.0 0.0 0.0 0.0 0.0 0.0 0.0 0.0
0.0 0.0 0.0 0.0 0.0 0.0 0.0 0.0 0.0 0.0 0.0 0.8 0.0 0.5 0.0 0.0 0.0 0.0 0.0 0.0 0.0 0.0 0.0 0.0 0.0 0.0 0.0 0.0 0.0 0.0 0.0 0.0 0.0 0.0 0.0 0.0 0.0 0.0 0.0 0.0 0.0 0.0 0.0 0.0
0.0 0.0 0.0 0.0 0.0 0.0 0.0 0.0 0.0 0.0 0.0 0.0 0.2 1.3 0.0 0.0 0.4 0.4 0.0 0.0 0.1 0.0 0.0 0.0 0.0 0.0 0.0 0.0 0.0 0.0 0.0 0.0 0.0 0.0 0.0 0.0 0.0 0.0 0.0 0.0 0.0 0.0 0.0 0.0
0.0 0.0 0.0 0.0 0.0 0.0 0.0 0.0 0.0 0.0 0.0 2.0 0.0 0.0 0.0 0.3 2.1 1.6 1.8 0.0 0.2 0.2 0.0 0.0 0.0 0.0 0.0 0.0 0.0 0.0 0.0 0.0 0.0 0.0 0.0 0.0 0.0 0.0 0.0 0.0 0.0 0.0 0.0 0.0
0.0 0.0 0.0 0.0 0.0 0.0 0.0 0.0 2.4 3.0 3.3 0.5 0.2 0.4 1.0 0.7 0.5 1.5 4.0 2.0 0.3 0.5 0.3 0.2 0.0 0.8 0.5 0.1 0.1 0.0 0.0 0.0 0.0 0.0 0.0 0.0 0.0 0.0 0.1 0.1 0.0 0.0 0.0 0.0
0.1 1.5 0.0 0.0 0.0 0.0 0.1 0.0 0.7 7.6 5.9 1.8 0.5 2.2 4.2 0.8 0.3 0.6 0.7 4.0 0.7 1.0 0.9 1.3 4.0 1.6 1.0 0.6 0.6 0.6 0.0 0.1 0.0 0.0 0.0 0.0 0.0 0.1 0.1 0.1 0.1 0.1 0.0 0.0
1.3 3.0 0.0 0.0 0.0 0.0 0.0 0.0 0.0 3.1 0.9 5.6 4.4 4.5 2.8 0.5 0.9 0.6 3.2 2.5 2.7 1.4 1.8 3.4 3.7 1.5 0.8 4.7 7.3 2.4 1.6 0.2 0.1 0.0 0.0 0.1 0.0 0.0 0.1 0.1 0.0 0.1 0.1 0.0
1.1 8.7 0.0 0.0 0.0 0.0 0.0 0.0 1.5 4.2 16.7 12.8 1.0 7.4 12.6 8.9 5.1 6.2 9.6 6.7 5.4 2.8 2.4 2.6 5.7 1.9 1.8 8.5 6.9 2.9 0.8 1.2 0.7 0.0 0.0 0.1 0.1 0.2 0.2 0.1 0.1 0.2 0.2 0.2
0.0 6.1 0.0 0.0 0.0 0.0 0.0 0.0 0.2 0.2 1.5 10.6 11.6 11.9 3.6 9.6 9.4 10.0 12.1 10.9 7.0 5.4 6.2 3.7 4.9 2.8 1.8 4.2 7.5 6.2 4.1 4.6 4.4 1.7 0.6 0.2 0.9 0.2 0.2 0.3 0.8 1.2 0.9 0.8
0.0 0.9 0.8 0.0 0.0 0.0 0.0 0.0 0.1 6.1 5.0 7.3 13.9 18.4 6.1 2.2 3.2 4.1 7.3 11.7 9.0 5.4 8.6 6.4 3.9 3.9 2.7 3.0 3.4 6.4 6.6 8.1 8.5 7.1 5.3 1.7 2.3 2.2 1.4 1.8 1.6 1.9 2.0 0.6
0.1 1.0 1.5 0.5 0.0 0.0 0.0 0.0 0.4 3.1 5.3 16.2 21.3 21.5 2.7 1.9 2.5 3.4 6.2 7.9 9.2 7.6 6.4 7.9 6.6 4.2 5.3 3.5 6.3 5.9 6.1 4.4 5.8 10.4 11.8 4.0 5.1 3.9 4.8 5.8 4.5 4.5 3.9 2.8
0.0 2.1 3.5 5.7 4.0 1.6 2.5 0.8 0.2 2.0 16.4 9.7 7.5 7.5 4.2 3.3 3.4 3.5 3.1 4.0 5.0 6.1 6.5 6.9 6.3 5.9 3.7 2.5 4.1 2.4 1.7 2.5 3.7 4.0 8.7 9.7 9.5 11.3 9.2 7.7 9.5 10.6 8.1 6.2
0.0 9.4 4.4 3.2 3.8 2.0 2.4 5.6 3.1 2.1 3.1 5.8 7.9 4.4 3.8 3.3 3.0 3.7 3.4 2.7 1.9 2.3 1.6 2.4 3.8 4.6 3.7 2.0 1.4 0.7 0.2 0.0 0.1 0.2 0.2 3.0 10.5 10.7 10.8 10.7 15.4 12.2 14.9 15.1
0.0 6.6 5.8 5.1 3.2 1.2 5.4 6.9 3.4 2.4 3.7 4.5 2.8 3.5 2.9 2.3 2.4 3.0 2.4 1.0 0.2 0.1 0.2 0.5 0.3 0.8 1.5 0.6 0.2 0.0 0.0 0.0 0.0 0.0 0.0 0.0 0.0 0.3 3.6 4.7 5.4 4.7 9.6 13.0
0.7 2.8 4.5 6.9 0.8 0.6 7.8 9.4 5.8 2.7 1.0 1.1 0.5 1.9 1.9 1.9 1.5 1.9 1.0 0.3 0.0 0.1 1.4 5.7 2.8 3.1 0.4 1.2 0.0 0.7 0.0 0.0 0.0 0.0 0.0 0.0 0.0 0.0 0.4 0.3 0.0 1.7 1.2 1.6
2.3 1.7 4.0 5.9 3.3 18.1 5.8 1.3 0.5 0.2 0.4 0.4 0.1 0.8 0.5 0.2 1.3 1.4 1.0 0.6 0.8 0.5 1.1 3.9 7.3 5.5 3.4 2.3 1.8 1.3 0.9 0.9 0.0 0.0 0.0 0.0 0.1 1.0 0.8 0.0 0.0 1.2 0.5 0.1
0.5 2.2 7.5 11.1 4.6 4.2 1.4 0.8 0.5 0.5 1.1 0.6 0.6 0.6 0.4 0.7 0.2 2.2 1.8 1.1 0.9 0.7 0.5 0.3 0.9 4.6 4.8 4.2 3.3 2.2 1.4 1.7 2.2 2.9 2.0 1.1 1.6 1.0 0.2 0.0 0.0 1.2 0.2 0.0
0.1 0.7 8.5 10.8 10.5 5.7 1.1 0.3 0.0 0.0 1.3 0.4 0.2 0.3 0.4 0.3 0.5 2.9 2.5 2.2 1.0 0.4 0.0 0.0 0.0 0.0 0.0 0.0 2.5 2.8 2.8 1.3 2.9 3.9 5.4 6.0 4.7 4.9 3.3 3.6 5.3 2.0 0.0 0.4
2.6 5.0 15.3 12.6 14.8 2.4 0.1 0.5 0.2 2.2 3.9 0.4 0.1 0.1 0.0 0.2 1.6 2.7 1.8 3.2 2.9 0.0 0.0 0.0 0.0 0.0 0.1 0.0 0.0 0.9 1.6 2.8 4.6 2.9 4.4 4.4 8.4 9.6 10.5 7.8 9.1 8.8 4.4 1.4
1.9 4.7 5.6 8.3 15.3 8.1 0.2 0.8 1.7 1.3 0.5 0.2 0.2 0.1 0.1 0.8 2.4 3.8 4.7 5.2 2.1 0.2 0.0 0.0 0.0 0.0 0.0 0.0 0.0 0.2 1.7 0.3 0.6 1.5 3.9 4.3 4.9 6.7 6.8 6.5 6.0 7.1 7.5 6.5
5.5 2.2 3.7 2.7 4.0 1.7 0.9 1.4 0.6 0.2 0.3 0.5 0.3 0.1 0.6 2.7 5.8 7.0 6.9 5.5 2.5 0.5 0.0 0.0 0.0 0.0 0.0 0.0 0.0 0.1 0.6 1.6 2.1 2.5 3.8 3.7 3.3 2.4 2.2 3.5 3.9 3.9 4.1 5.3
2.1 0.0 4.8 5.2 4.1 2.0 1.3 0.8 0.3 0.4 1.7 1.2 0.3 0.7 1.3 2.5 3.5 3.7 4.1 2.2 1.2 0.4 0.1 0.0 0.0 0.0 0.0 0.0 0.0 0.2 0.8 0.6 1.0 1.5 1.8 1.7 1.3 0.6 0.5 0.6 1.1 1.7 2.1 3.3
1.3 1.6 3.5 6.9 3.8 1.5 1.7 2.0 1.3 1.1 0.7 0.5 0.2 0.1 0.1 0.0 0.3 0.0 0.2 0.2 0.2 0.0 0.1 0.1 0.0 0.0 0.0 0.0 1.0 0.0 0.3 0.4 0.8 0.8 0.6 0.2 0.1 0.0 0.1 0.5 0.5 0.7 1.8 1.3
0.7 2.6 7.7 9.8 6.5 6.1 5.6 4.0 3.0 3.3 2.3 1.0 0.8 0.5 0.1 0.1 0.2 0.1 0.5 0.1 0.0 0.1 0.0 0.0 0.0 0.0 0.1 0.0 0.1 0.1 0.0 0.0 0.1 0.0 0.0 0.2 0.3 0.1 0.0 0.0 0.2 0.1 0.2 0.3

GFSCGP_prec_kuchsnow_186.txt.gz
Snowfall_Accumulation
0.0 0.0 0.0 0.0 0.0 0.0 0.0 0.0 0.0 0.0 0.0 0.0 0.0 0.0 0.0 0.0 0.0 0.0 0.0 0.0 0.0 0.0 0.0 0.0 0.0 0.0 0.0 0.0 0.0 0.0 0.0 0.0 0.0 0.0 0.0 0.0 0.0 0.0 0.0 0.0 0.0 0.0 0.0 0.0
0.0 0.0 0.0 0.0 0.0 0.0 0.0 0.0 0.0 0.0 0.0 0.0 0.0 0.0 0.0 0.0 0.0 0.0 0.0 0.0 0.0 0.0 0.0 0.0 0.0 0.0 0.0 0.0 0.0 0.0 0.0 0.0 0.0 0.0 0.0 0.0 0.0 0.0 0.0 0.0 0.0 0.0 0.0 0.0
0.0 0.0 0.0 0.0 0.0 0.0 0.0 0.0 0.0 0.0 0.0 0.0 0.0 0.0 0.0 0.0 0.0 0.0 0.0 0.0 0.0 0.0 0.0 0.0 0.0 0.0 0.0 0.0 0.0 0.0 0.0 0.0 0.0 0.0 0.0 0.0 0.0 0.0 0.0 0.0 0.0 0.0 0.0 0.0
0.0 0.0 0.0 0.0 0.0 0.0 0.0 0.0 0.0 0.0 0.0 0.8 0.0 0.5 0.0 0.0 0.0 0.0 0.0 0.0 0.0 0.0 0.0 0.0 0.0 0.0 0.0 0.0 0.0 0.0 0.0 0.0 0.0 0.0 0.0 0.0 0.0 0.0 0.0 0.0 0.0 0.0 0.0 0.0
0.0 0.0 0.0 0.0 0.0 0.0 0.0 0.0 0.0 0.0 0.0 0.0 0.2 1.3 0.0 0.0 0.4 0.4 0.0 0.0 0.1 0.0 0.0 0.0 0.0 0.0 0.0 0.0 0.0 0.0 0.0 0.0 0.0 0.0 0.0 0.0 0.0 0.0 0.0 0.0 0.0 0.0 0.0 0.0
0.0 0.0 0.0 0.0 0.0 0.0 0.0 0.0 0.0 0.0 0.0 2.0 0.0 0.0 0.0 0.3 2.1 1.6 1.8 0.0 0.2 0.2 0.0 0.0 0.0 0.0 0.0 0.0 0.0 0.0 0.0 0.0 0.0 0.0 0.0 0.0 0.0 0.0 0.0 0.0 0.0 0.0 0.0 0.0
0.0 0.0 0.0 0.0 0.0 0.0 0.0 0.0 2.5 3.1 3.5 0.5 0.2 0.4 1.0 0.7 0.5 1.5 4.0 2.0 0.3 0.5 0.3 0.2 0.0 0.8 0.5 0.1 0.1 0.0 0.0 0.0 0.0 0.0 0.0 0.0 0.0 0.0 0.1 0.1 0.0 0.0 0.0 0.0
0.1 1.5 0.0 0.0 0.0 0.0 0.1 0.0 0.7 7.6 5.9 1.8 0.5 2.2 4.2 0.8 0.3 0.6 0.7 4.0 0.7 1.0 0.9 1.3 4.0 1.6 1.0 0.6 0.6 0.6 0.0 0.1 0.0 0.0 0.0 0.0 0.0 0.1 0.1 0.1 0.1 0.1 0.0 0.0
1.3 3.0 0.0 0.0 0.0 0.0 0.0 0.0 0.0 3.1 0.9 5.7 4.4 4.5 2.8 0.5 0.9 0.6 3.2 2.5 2.7 1.4 1.8 3.4 3.7 1.5 0.8 4.7 7.3 2.4 1.6 0.2 0.1 0.0 0.0 0.1 0.0 0.0 0.1 0.1 0.0 0.1 0.1 0.0
1.1 8.7 0.0 0.0 0.0 0.0 0.0 0.0 1.5 4.2 17.8 13.6 1.0 7.4 12.6 8.9 5.1 6.2 9.6 6.7 5.4 2.8 2.4 2.6 5.7 1.9 1.8 8.5 6.9 2.9 0.8 1.2 0.7 0.0 0.0 0.1 0.1 0.2 0.2 0.1 0.1 0.2 0.2 0.2
0.0 6.1 0.0 0.0 0.0 0.0 0.0 0.0 0.2 0.2 1.5 10.6 11.6 11.9 3.6 9.6 9.4 10.0 12.1 10.9 7.0 5.4 6.2 3.7 4.9 2.8 1.8 4.2 7.5 6.2 4.1 4.6 4.4 1.7 0.6 0.2 0.9 0.2 0.2 0.3 0.8 1.2 0.9 0.8
0.0 0.9 0.8 0.0 0.0 0.0 0.0 0.0 0.1 6.2 5.0 7.3 13.9 18.5 6.1 2.2 3.2 4.1 7.3 11.7 9.0 5.4 8.6 6.4 3.9 3.9 2.7 3.0 3.4 6.4 6.6 8.1 8.5 7.1 5.3 1.7 2.3 2.2 1.4 1.8 1.6 1.9 2.0 0.6
0.1 2.1 3.5 1.7 0.0 0.0 0.0 0.0 0.4 3.1 5.3 17.4 23.4 23.6 2.7 1.9 2.5 3.4 6.2 7.9 9.2 7.6 6.4 7.9 6.6 4.2 5.3 3.5 6.3 5.9 6.1 4.4 5.8 10.4 11.8 4.0 5.1 3.9 4.8 5.8 4.5 4.5 3.9 2.8
0.0 2.8 4.2 6.1 4.0 1.6 2.9 0.8 0.2 3.3 18.7 11.1 8.4 7.8 4.2 3.3 3.4 3.5 3.1 4.0 5.0 6.1 6.5 6.9 6.3 5.9 3.7 2.5 4.1 2.4 1.7 2.5 3.7 4.0 8.7 9.7 9.5 11.3 9.2 7.7 9.5 10.6 8.1 6.2
0.0 9.9 4.7 3.2 3.8 2.0 2.4 5.6 3.1 2.1 3.1 6.5 8.1 4.4 3.8 3.3 3.0 3.7 3.4 2.7 1.9 2.3 1.6 2.4 3.8 4.6 3.7 2.0 1.4 0.7 0.2 0.0 0.1 0.2 0.2 3.0 10.5 10.7 10.8 10.7 15.4 12.2 14.9 15.1
0.0 7.1 6.2 5.4 3.2 1.2 6.6 7.5 3.8 2.7 4.0 4.7 2.8 3.5 2.9 2.3 2.4 3.0 2.4 1.0 0.2 0.1 0.2 0.5 0.3 0.8 1.5 0.6 0.2 0.0 0.0 0.0 0.0 0.0 0.0 0.0 0.0 0.3 3.6 4.7 5.4 4.7 9.6 13.0
1.6 3.1 4.8 7.1 0.8 0.8 8.6 9.4 5.8 2.7 1.0 1.1 0.5 1.9 1.9 1.9 1.5 1.9 1.0 0.3 0.0 0.1 1.4 5.7 2.8 3.1 0.4 1.2 0.0 0.7 0.0 0.0 0.0 0.0 0.0 0.0 0.0 0.0 0.5 0.3 0.0 1.7 1.2 1.6
5.0 3.4 4.9 6.3 3.6 19.4 5.8 1.3 0.5 0.2 0.4 0.4 0.1 0.8 0.5 0.2 1.3 1.4 1.0 0.6 0.8 0.5 1.1 3.9 7.3 5.5 3.4 2.3 1.8 1.3 0.9 0.9 0.0 0.0 0.0 0.0 0.1 1.0 0.8 0.0 0.0 1.2 0.5 0.1
1.0 3.8 9.7 11.9 5.0 4.2 1.4 0.8 0.5 0.5 1.1 0.6 0.6 0.6 0.4 0.7 0.2 2.2 1.8 1.1 0.9 0.7 0.5 0.3 0.9 4.6 4.8 4.2 3.3 2.2 1.4 1.7 2.2 2.9 2.0 1.1 1.6 1.0 0.2 0.6 0.0 1.7 1.4 1.3
0.2 1.3 11.5 13.7 11.6 6.0 1.1 0.3 0.0 0.0 1.3 0.4 0.2 0.3 0.4 0.3 0.5 2.9 2.5 2.2 1.0 0.4 0.0 0.0 0.0 0.0 0.0 0.0 2.5 2.8 2.8 1.3 2.9 3.9 5.4 6.0 4.7 4.9 4.1 4.7 6.6 3.7 1.7 1.8
3.1 5.7 16.8 15.5 17.7 3.3 0.1 0.5 0.2 2.2 3.9 0.4 0.1 0.1 0.0 0.2 1.6 2.7 1.8 3.2 2.9 0.0 0.0 0.0 0.0 0.0 0.1 0.0 0.0 0.9 1.6 2.8 4.6 2.9 4.4 4.4 8.4 9.6 11.8 10.5 12.7 12.1 6.8 2.9
3.3 5.8 6.1 9.1 17.3 10.0 0.3 0.8 1.7 1.3 0.5 0.2 0.2 0.1 0.1 0.8 2.4 3.8 4.7 5.2 2.1 0.2 0.0 0.0 0.0 0.0 0.0 0.0 0.0 0.2 1.7 0.3 0.6 1.5 4.0 4.3 5.8 8.5 9.7 10.7 10.5 10.3 9.6 7.6
6.4 3.2 5.2 4.2 5.9 2.9 1.2 1.4 0.6 0.2 0.3 0.5 0.3 0.1 0.6 2.7 5.8 7.0 6.9 5.5 2.5 0.5 0.0 0.0 0.0 0.0 0.0 0.0 0.0 0.1 0.6 1.6 2.1 2.7 4.6 5.5 5.6 6.4 7.3 7.4 6.6 5.5 5.1 5.7
2.1 0.0 4.9 5.2 4.4 2.0 1.9 0.8 0.3 0.4 1.7 1.2 0.3 0.7 1.3 2.5 3.5 3.7 4.1 2.2 1.2 0.4 0.1 0.0 0.0 0.0 0.0 0.0 0.0 0.2 0.8 0.8 1.6 2.7 3.5 4.1 4.9 5.2 4.6 3.4 2.5 2.4 2.4 3.4
1.3 1.6 3.5 6.9 3.8 1.5 1.7 2.0 1.3 1.1 0.7 0.5 0.2 0.1 0.1 0.0 0.3 0.0 0.2 0.2 0.2 0.0 0.1 0.1 0.0 0.0 0.0 0.0 1.0 0.2 0.5 0.8 1.5 1.7 2.2 2.2 2.5 2.6 2.2 1.5 1.2 1.0 1.9 1.3
0.7 2.6 7.7 9.8 6.5 6.1 5.6 4.0 3.0 3.3 2.3 1.0 0.8 0.5 0.1 0.1 0.2 0.1 0.5 0.1 0.0 0.1 0.0 0.0 0.0 0.0 0.1 0.0 0.1 0.5 0.7 0.8 1.1 1.3 1.2 1.2 1.4 1.2 0.7 0.5 0.6 0.1 0.2 0.3

GFSCGP_prec_kuchsnow_189.txt.gz
Snowfall_Accumulation
0.0 0.0 0.0 0.0 0.0 0.0 0.0 0.0 0.0 0.0 0.0 0.0 0.0 0.0 0.0 0.0 0.0 0.0 0.0 0.0 0.0 0.0 0.0 0.0 0.0 0.0 0.0 0.0 0.0 0.0 0.0 0.0 0.0 0.0 0.0 0.0 0.0 0.0 0.0 0.0 0.0 0.0 0.0 0.0
0.0 0.0 0.0 0.0 0.0 0.0 0.0 0.0 0.0 0.0 0.0 0.0 0.0 0.0 0.0 0.0 0.0 0.0 0.0 0.0 0.0 0.0 0.0 0.0 0.0 0.0 0.0 0.0 0.0 0.0 0.0 0.0 0.0 0.0 0.0 0.0 0.0 0.0 0.0 0.0 0.0 0.0 0.0 0.0
0.0 0.0 0.0 0.0 0.0 0.0 0.0 0.0 0.0 0.0 0.0 0.0 0.0 0.0 0.0 0.0 0.0 0.0 0.0 0.0 0.0 0.0 0.0 0.0 0.0 0.0 0.0 0.0 0.0 0.0 0.0 0.0 0.0 0.0 0.0 0.0 0.0 0.0 0.0 0.0 0.0 0.0 0.0 0.0
0.0 0.0 0.0 0.0 0.0 0.0 0.0 0.0 0.0 0.0 0.0 0.8 0.0 0.5 0.0 0.0 0.0 0.0 0.0 0.0 0.0 0.0 0.0 0.0 0.0 0.0 0.0 0.0 0.0 0.0 0.0 0.0 0.0 0.0 0.0 0.0 0.0 0.0 0.0 0.0 0.0 0.0 0.0 0.0
0.0 0.0 0.0 0.0 0.0 0.0 0.0 0.0 0.0 0.0 0.0 0.0 0.2 1.3 0.0 0.0 0.4 0.4 0.0 0.0 0.1 0.0 0.0 0.0 0.0 0.0 0.0 0.0 0.0 0.0 0.0 0.0 0.0 0.0 0.0 0.0 0.0 0.0 0.0 0.0 0.0 0.0 0.0 0.0
0.0 0.0 0.0 0.0 0.0 0.0 0.0 0.0 0.0 0.0 0.0 2.1 0.0 0.0 0.0 0.3 2.1 1.6 1.8 0.0 0.2 0.2 0.0 0.0 0.0 0.0 0.0 0.0 0.0 0.0 0.0 0.0 0.0 0.0 0.0 0.0 0.0 0.0 0.0 0.0 0.0 0.0 0.0 0.0
0.0 0.0 0.0 0.0 0.0 0.0 0.0 0.0 2.6 3.4 3.6 0.7 0.2 0.4 1.0 0.7 0.5 1.5 4.0 2.0 0.3 0.5 0.3 0.2 0.0 0.8 0.5 0.1 0.1 0.0 0.0 0.0 0.0 0.0 0.0 0.0 0.0 0.0 0.1 0.1 0.0 0.0 0.0 0.0
0.1 1.5 0.0 0.0 0.0 0.0 0.1 0.0 0.7 7.8 5.9 1.8 0.5 2.2 4.2 0.8 0.3 0.6 0.7 4.0 0.7 1.0 0.9 1.3 4.0 1.6 1.0 0.6 0.6 0.6 0.0 0.1 0.0 0.0 0.0 0.0 0.0 0.1 0.1 0.1 0.1 0.1 0.0 0.0
1.3 3.0 0.0 0.0 0.0 0.0 0.0 0.0 0.0 3.1 0.9 5.7 4.4 4.5 2.8 0.5 0.9 0.6 3.2 2.5 2.7 1.4 1.8 3.4 3.7 1.5 0.8 4.7 7.3 2.4 1.6 0.2 0.1 0.0 0.0 0.1 0.0 0.0 0.1 0.1 0.0 0.1 0.1 0.0
1.1 8.7 0.0 0.0 0.0 0.0 0.0 0.0 1.5 4.2 18.7 14.5 1.0 7.4 12.6 8.9 5.1 6.2 9.6 6.7 5.4 2.8 2.4 2.6 5.7 1.9 1.8 8.5 6.9 2.9 0.8 1.2 0.7 0.0 0.0 0.1 0.1 0.2 0.2 0.1 0.1 0.2 0.2 0.2
0.0 6.1 0.0 0.0 0.0 0.0 0.0 0.0 0.2 0.2 1.5 10.7 11.6 11.9 3.6 9.6 9.4 10.0 12.1 10.9 7.0 5.4 6.2 3.7 4.9 2.8 1.8 4.2 7.5 6.2 4.1 4.6 4.4 1.7 0.6 0.2 0.9 0.2 0.2 0.3 0.8 1.2 0.9 0.8
0.0 0.9 1.0 0.0 0.0 0.0 0.0 0.0 0.1 6.2 5.0 7.3 13.9 18.5 6.1 2.2 3.2 4.1 7.3 11.7 9.0 5.4 8.6 6.4 3.9 3.9 2.7 3.0 3.4 6.4 6.6 8.1 8.5 7.1 5.3 1.7 2.3 2.2 1.4 1.8 1.6 1.9 2.0 0.6
0.1 5.2 8.3 4.2 0.0 0.0 0.0 0.0 0.4 3.1 5.3 17.6 23.8 23.9 2.7 1.9 2.5 3.4 6.2 7.9 9.2 7.6 6.4 7.9 6.6 4.2 5.3 3.5 6.3 5.9 6.1 4.4 5.8 10.4 11.8 4.0 5.1 3.9 4.8 5.8 4.5 4.5 3.9 2.8
0.0 4.3 5.5 8.1 5.4 3.1 5.1 2.1 0.2 3.3 20.3 11.1 9.4 9.3 4.2 3.3 3.4 3.5 3.1 4.0 5.0 6.1 6.5 6.9 6.3 5.9 3.7 2.5 4.1 2.4 1.7 2.5 3.7 4.0 8.7 9.7 9.5 11.3 9.2 7.7 9.5 10.6 8.1 6.2
0.0 12.7 5.4 3.3 3.8 2.0 2.5 5.7 3.1 2.7 3.5 7.5 8.8 4.9 3.8 3.3 3.0 3.7 3.4 2.7 1.9 2.3 1.6 2.4 3.8 4.6 3.7 2.0 1.4 0.7 0.2 0.0 0.1 0.2 0.2 3.0 10.5 10.7 10.8 10.7 15.4 12.2 14.9 15.1
0.0 7.1 7.0 6.3 3.3 1.2 6.6 7.5 3.8 2.7 4.0 4.7 2.8 3.5 2.9 2.3 2.4 3.0 2.4 1.0 0.2 0.1 0.2 0.5 0.3 0.8 1.5 0.6 0.2 0.0 0.0 0.0 0.0 0.0 0.0 0.0 0.0 0.3 3.6 4.7 5.4 4.7 9.6 13.0
2.5 4.8 4.8 9.3 0.8 1.7 10.6 9.7 5.8 2.7 1.0 1.1 0.6 1.9 1.9 1.9 1.5 1.9 1.0 0.3 0.0 0.1 1.4 5.7 2.8 3.1 0.4 1.2 0.0 0.7 0.0 0.0 0.0 0.0 0.0 0.0 0.0 0.0 0.5 0.3 0.0 1.7 1.2 1.6
5.5 4.2 6.2 8.1 4.6 22.6 6.1 1.3 0.5 0.2 0.4 0.4 0.1 0.8 0.5 0.2 1.3 1.4 1.0 0.6 0.8 0.5 1.1 3.9 7.3 5.5 3.4 2.3 1.8 1.3 0.9 0.9 0.0 0.0 0.0 0.0 0.1 1.0 0.8 0.0 0.0 1.2 0.8 0.2
1.0 4.5 11.6 13.5 6.4 4.2 1.4 0.8 0.5 0.5 1.1 0.6 0.6 0.6 0.4 0.7 0.2 2.2 1.8 1.1 0.9 0.7 0.5 0.3 0.9 4.6 4.8 4.2 3.3 2.2 1.4 1.7 2.2 2.9 2.0 1.1 1.6 1.0 0.2 0.6 0.0 2.0 1.9 1.7
0.3 1.8 13.4 15.9 13.5 6.7 1.1 0.3 0.0 0.0 1.3 0.4 0.2 0.3 0.4 0.3 0.5 2.9 2.5 2.2 1.0 0.4 0.0 0.0 0.0 0.0 0.0 0.0 2.5 2.8 2.8 1.3 2.9 3.9 5.4 6.0 4.7 4.9 4.1 4.7 7.0 4.5 2.7 3.0
4.5 6.7 18.3 16.6 19.8 4.3 0.1 0.5 0.2 2.2 3.9 0.4 0.1 0.1 0.0 0.2 1.6 2.7 1.8 3.2 2.9 0.0 0.0 0.0 0.0 0.0 0.1 0.0 0.0 0.9 1.6 2.8 4.6 2.9 4.4 4.4 8.4 9.6 11.8 10.5 14.0 14.5 9.6 5.7
5.3 8.1 7.7 10.1 18.6 11.7 0.8 0.8 1.7 1.3 0.5 0.2 0.2 0.1 0.1 0.8 2.4 3.8 4.7 5.2 2.1 0.2 0.0 0.0 0.0 0.0 0.0 0.0 0.0 0.2 1.7 0.3 0.6 1.5 4.0 4.3 5.8 8.5 10.3 12.0 13.0 14.0 13.8 11.7
7.2 3.7 6.6 6.5 9.0 4.4 2.6 2.1 0.6 0.2 0.3 0.5 0.3 0.1 0.6 2.7 5.8 7.0 6.9 5.5 2.5 0.5 0.0 0.0 0.0 0.0 0.0 0.0 0.0 0.1 0.6 1.6 2.1 2.7 4.6 5.5 5.9 6.8 8.2 9.8 10.2 9.6 9.0 9.2
2.1 0.0 4.9 5.2 4.9 2.3 3.2 1.3 0.3 0.4 1.7 1.2 0.3 0.7 1.3 2.5 3.5 3.7 4.1 2.2 1.2 0.4 0.1 0.0 0.0 0.0 0.0 0.0 0.0 0.2 0.8 0.8 1.6 2.9 3.9 4.7 5.6 6.0 6.0 5.3 4.6 4.4 4.5 5.2
1.3 1.6 3.5 6.9 3.8 1.5 1.7 2.0 1.3 1.1 0.7 0.5 0.2 0.1 0.1 0.0 0.3 0.0 0.2 0.2 0.2 0.0 0.1 0.1 0.0 0.0 0.0 0.0 1.0 0.2 0.5 0.8 1.5 1.7 2.8 3.0 3.1 3.2 2.9 2.6 2.4 2.3 2.8 1.9
0.7 2.6 7.7 9.8 6.5 6.1 5.6 4.0 3.0 3.3 2.3 1.0 0.8 0.5 0.1 0.1 0.2 0.1 0.5 0.1 0.0 0.1 0.0 0.0 0.0 0.0 0.1 0.0 0.1 0.5 0.7 0.9 1.2 1.3 1.5 1.8 2.4 2.2 1.6 1.6 2.4 1.9 1.6 1.2

GFSCGP_prec_kuchsnow_192.txt.gz
Snowfall_Accumulation
0.0 0.0 0.0 0.0 0.0 0.0 0.0 0.0 0.0 0.0 0.0 0.0 0.0 0.0 0.0 0.0 0.0 0.0 0.0 0.0 0.0 0.0 0.0 0.0 0.0 0.0 0.0 0.0 0.0 0.0 0.0 0.0 0.0 0.0 0.0 0.0 0.0 0.0 0.0 0.0 0.0 0.0 0.0 0.0
0.0 0.0 0.0 0.0 0.0 0.0 0.0 0.0 0.0 0.0 0.0 0.0 0.0 0.0 0.0 0.0 0.0 0.0 0.0 0.0 0.0 0.0 0.0 0.0 0.0 0.0 0.0 0.0 0.0 0.0 0.0 0.0 0.0 0.0 0.0 0.0 0.0 0.0 0.0 0.0 0.0 0.0 0.0 0.0
0.0 0.0 0.0 0.0 0.0 0.0 0.0 0.0 0.0 0.0 0.0 0.0 0.0 0.0 0.0 0.0 0.0 0.0 0.0 0.0 0.0 0.0 0.0 0.0 0.0 0.0 0.0 0.0 0.0 0.0 0.0 0.0 0.0 0.0 0.0 0.0 0.0 0.0 0.0 0.0 0.0 0.0 0.0 0.0
0.0 0.0 0.0 0.0 0.0 0.0 0.0 0.0 0.0 0.0 0.0 0.8 0.0 0.5 0.0 0.0 0.0 0.0 0.0 0.0 0.0 0.0 0.0 0.0 0.0 0.0 0.0 0.0 0.0 0.0 0.0 0.0 0.0 0.0 0.0 0.0 0.0 0.0 0.0 0.0 0.0 0.0 0.0 0.0
0.0 0.0 0.0 0.0 0.0 0.0 0.0 0.0 0.0 0.0 0.0 0.0 0.2 1.3 0.0 0.0 0.4 0.4 0.0 0.0 0.1 0.0 0.0 0.0 0.0 0.0 0.0 0.0 0.0 0.0 0.0 0.0 0.0 0.0 0.0 0.0 0.0 0.0 0.0 0.0 0.0 0.0 0.0 0.0
0.0 0.0 0.0 0.0 0.0 0.0 0.0 0.0 0.0 0.0 0.0 2.1 0.0 0.0 0.0 0.3 2.1 1.6 1.8 0.0 0.2 0.2 0.0 0.0 0.0 0.0 0.0 0.0 0.0 0.0 0.0 0.0 0.0 0.0 0.0 0.0 0.0 0.0 0.0 0.0 0.0 0.0 0.0 0.0
0.0 0.0 0.0 0.0 0.0 0.0 0.0 0.0 2.7 3.6 3.8 0.8 0.2 0.4 1.0 0.7 0.5 1.5 4.0 2.0 0.3 0.5 0.3 0.2 0.0 0.8 0.5 0.1 0.1 0.0 0.0 0.0 0.0 0.0 0.0 0.0 0.0 0.0 0.1 0.1 0.0 0.0 0.0 0.0
0.1 1.5 0.0 0.0 0.0 0.0 0.1 0.0 0.7 7.8 6.0 1.8 0.5 2.2 4.2 0.8 0.3 0.6 0.7 4.0 0.7 1.0 0.9 1.3 4.0 1.6 1.0 0.6 0.6 0.6 0.0 0.1 0.0 0.0 0.0 0.0 0.0 0.1 0.1 0.1 0.1 0.1 0.0 0.0
1.3 3.0 0.0 0.0 0.0 0.0 0.0 0.0 0.0 3.1 0.9 5.7 4.4 4.5 2.8 0.5 0.9 0.6 3.2 2.5 2.7 1.4 1.8 3.4 3.7 1.5 0.8 4.7 7.3 2.4 1.6 0.2 0.1 0.0 0.0 0.1 0.0 0.0 0.1 0.1 0.0 0.1 0.1 0.0
1.1 8.7 0.0 0.0 0.0 0.0 0.0 0.0 1.5 4.2 19.9 15.4 1.0 7.4 12.6 8.9 5.1 6.2 9.6 6.7 5.4 2.8 2.4 2.6 5.7 1.9 1.8 8.5 6.9 2.9 0.8 1.2 0.7 0.0 0.0 0.1 0.1 0.2 0.2 0.1 0.1 0.2 0.2 0.2
0.0 6.1 0.0 0.0 0.0 0.0 0.0 0.0 0.2 0.2 1.5 10.8 11.7 11.9 3.6 9.6 9.4 10.0 12.1 10.9 7.0 5.4 6.2 3.7 4.9 2.8 1.8 4.2 7.5 6.2 4.1 4.6 4.4 1.7 0.6 0.2 0.9 0.2 0.2 0.3 0.8 1.2 0.9 0.8
0.0 3.3 3.6 0.7 0.0 0.0 0.0 0.0 0.1 6.2 5.0 7.3 13.9 18.5 6.1 2.2 3.2 4.1 7.3 11.7 9.0 5.4 8.6 6.4 3.9 3.9 2.7 3.0 3.4 6.4 6.6 8.1 8.5 7.1 5.3 1.7 2.3 2.2 1.4 1.8 1.6 1.9 2.0 0.6
0.1 6.1 8.3 4.2 0.0 0.0 0.0 0.0 0.4 4.0 5.3 17.7 24.1 23.9 2.7 1.9 2.5 3.4 6.2 7.9 9.2 7.6 6.4 7.9 6.6 4.2 5.3 3.5 6.3 5.9 6.1 4.4 5.8 10.4 11.8 4.0 5.1 3.9 4.8 5.8 4.5 4.5 3.9 2.8
0.0 5.4 6.9 9.4 5.9 4.1 7.3 3.7 1.7 6.2 24.7 13.4 10.5 9.3 4.2 3.3 3.4 3.5 3.1 4.0 5.0 6.1 6.5 6.9 6.3 5.9 3.7 2.5 4.1 2.4 1.7 2.5 3.7 4.0 8.7 9.7 9.5 11.3 9.2 7.7 9.5 10.6 8.1 6.2
0.0 12.7 5.4 3.8 4.0 2.0 2.6 5.7 3.1 3.8 5.2 11.3 10.1 4.9 3.8 3.3 3.0 3.7 3.4 2.7 1.9 2.3 1.6 2.4 3.8 4.6 3.7 2.0 1.4 0.7 0.2 0.0 0.1 0.2 0.2 3.0 10.5 10.7 10.8 10.7 15.4 12.2 14.9 15.1
0.0 7.1 7.0 6.3 3.3 1.2 6.7 7.5 3.8 2.7 4.1 4.9 3.0 3.8 2.9 2.3 2.4 3.0 2.4 1.0 0.2 0.1 0.2 0.5 0.3 0.8 1.5 0.6 0.2 0.0 0.0 0.0 0.0 0.0 0.0 0.0 0.0 0.3 3.6 4.7 5.4 4.7 9.6 13.0
2.6 4.8 4.8 9.3 0.8 1.7 10.6 9.7 5.8 2.7 1.0 1.1 1.1 1.9 1.9 1.9 1.5 1.9 1.0 0.3 0.0 0.1 1.4 5.7 2.8 3.1 0.4 1.2 0.0 0.7 0.0 0.0 0.0 0.0 0.0 0.0 0.0 0.0 0.5 0.3 0.0 1.7 1.2 1.6
5.5 4.2 6.3 8.2 4.6 23.0 6.1 1.3 0.5 0.2 0.4 0.4 0.1 0.8 0.5 0.2 1.3 1.4 1.0 0.6 0.8 0.5 1.1 3.9 7.3 5.5 3.4 2.3 1.8 1.3 0.9 0.9 0.0 0.0 0.0 0.0 0.1 1.0 0.8 0.0 0.0 1.2 0.8 0.2
1.0 4.6 12.0 13.8 6.4 4.2 1.4 0.8 0.5 0.5 1.1 0.6 0.6 0.6 0.4 0.7 0.2 2.2 1.8 1.1 0.9 0.7 0.5 0.3 0.9 4.6 4.8 4.2 3.3 2.2 1.4 1.7 2.2 2.9 2.0 1.1 1.6 1.0 0.2 0.6 0.0 2.0 1.9 1.7
0.3 1.8 14.6 16.6 14.3 7.4 1.1 0.3 0.0 0.0 1.3 0.4 0.2 0.3 0.4 0.3 0.5 2.9 2.5 2.2 1.0 0.4 0.0 0.0 0.0 0.0 0.0 0.0 2.5 2.8 2.8 1.3 2.9 3.9 5.4 6.0 4.7 4.9 4.1 4.7 7.0 4.5 2.7 4.1
5.1 8.4 20.6 17.6 20.9 4.6 0.1 0.5 0.2 2.5 4.0 0.4 0.1 0.1 0.0 0.2 1.6 2.7 1.8 3.2 2.9 0.0 0.0 0.0 0.0 0.0 0.1 0.0 0.0 0.9 1.6 2.8 4.6 2.9 4.4 4.4 8.4 9.6 11.8 10.5 14.0 14.5 9.6 7.5
6.0 9.8 7.7 13.2 21.3 14.2 1.0 1.0 2.0 1.5 0.5 0.2 0.2 0.1 0.1 0.8 2.4 3.8 4.7 5.2 2.1 0.2 0.0 0.0 0.0 0.0 0.0 0.0 0.0 0.2 1.7 0.3 0.6 1.5 4.0 4.3 5.8 8.5 10.3 12.0 13.0 14.0 14.3 13.1
7.2 3.7 6.6 7.5 12.0 5.8 3.9 3.7 1.0 0.3 0.3 0.5 0.3 0.1 0.6 2.7 5.8 7.0 6.9 5.5 2.5 0.5 0.0 0.0 0.0 0.0 0.0 0.0 0.0 0.1 0.6 1.6 2.1 2.7 4.6 5.5 5.9 6.8 8.2 9.9 10.4 9.9 9.5 10.4
2.1 0.0 4.9 5.3 4.9 2.4 3.9 1.9 0.4 0.4 1.7 1.2 0.3 0.7 1.3 2.5 3.5 3.7 4.1 2.2 1.2 0.4 0.1 0.0 0.0 0.0 0.0 0.0 0.0 0.2 0.8 0.8 1.6 2.9 3.9 4.8 5.8 6.4 6.5 5.8 5.0 4.9 5.3 6.1
1.3 1.6 3.5 6.9 3.8 1.5 1.7 2.0 1.3 1.1 0.7 0.5 0.2 0.1 0.1 0.0 0.3 0.0 0.2 0.2 0.2 0.0 0.1 0.1 0.0 0.0 0.0 0.0 1.0 0.2 0.5 0.8 1.5 1.7 2.8 3.1 3.2 3.4 3.2 2.9 2.7 2.5 2.9 1.9
0.7 2.6 7.7 9.8 6.5 6.1 5.6 4.0 3.0 3.3 2.3 1.0 0.8 0.5 0.1 0.1 0.2 0.1 0.5 0.1 0.0 0.1 0.0 0.0 0.0 0.0 0.1 0.0 0.1 0.5 0.7 0.9 1.2 1.3 1.5 1.8 2.4 2.4 1.9 1.9 2.9 2.7 2.3 2.2

GFSCGP_prec_kuchsnow_195.txt.gz
Snowfall_Accumulation
0.0 0.0 0.0 0.0 0.0 0.0 0.0 0.0 0.0 0.0 0.0 0.0 0.0 0.0 0.0 0.0 0.0 0.0 0.0 0.0 0.0 0.0 0.0 0.0 0.0 0.0 0.0 0.0 0.0 0.0 0.0 0.0 0.0 0.0 0.0 0.0 0.0 0.0 0.0 0.0 0.0 0.0 0.0 0.0
0.0 0.0 0.0 0.0 0.0 0.0 0.0 0.0 0.0 0.0 0.0 0.0 0.0 0.0 0.0 0.0 0.0 0.0 0.0 0.0 0.0 0.0 0.0 0.0 0.0 0.0 0.0 0.0 0.0 0.0 0.0 0.0 0.0 0.0 0.0 0.0 0.0 0.0 0.0 0.0 0.0 0.0 0.0 0.0
0.0 0.0 0.0 0.0 0.0 0.0 0.0 0.0 0.0 0.0 0.0 0.0 0.0 0.0 0.0 0.0 0.0 0.0 0.0 0.0 0.0 0.0 0.0 0.0 0.0 0.0 0.0 0.0 0.0 0.0 0.0 0.0 0.0 0.0 0.0 0.0 0.0 0.0 0.0 0.0 0.0 0.0 0.0 0.0
0.0 0.0 0.0 0.0 0.0 0.0 0.0 0.0 0.0 0.0 0.0 0.8 0.0 0.5 0.0 0.0 0.0 0.0 0.0 0.0 0.0 0.0 0.0 0.0 0.0 0.0 0.0 0.0 0.0 0.0 0.0 0.0 0.0 0.0 0.0 0.0 0.0 0.0 0.0 0.0 0.0 0.0 0.0 0.0
0.0 0.0 0.0 0.0 0.0 0.0 0.0 0.0 0.0 0.0 0.0 0.0 0.2 1.3 0.0 0.0 0.4 0.4 0.0 0.0 0.1 0.0 0.0 0.0 0.0 0.0 0.0 0.0 0.0 0.0 0.0 0.0 0.0 0.0 0.0 0.0 0.0 0.0 0.0 0.0 0.0 0.0 0.0 0.0
0.0 0.0 0.0 0.0 0.0 0.0 0.0 0.0 0.0 0.0 0.0 2.1 0.0 0.0 0.0 0.3 2.1 1.6 1.8 0.0 0.2 0.2 0.0 0.0 0.0 0.0 0.0 0.0 0.0 0.0 0.0 0.0 0.0 0.0 0.0 0.0 0.0 0.0 0.0 0.0 0.0 0.0 0.0 0.0
0.0 0.0 0.0 0.0 0.0 0.0 0.0 0.0 2.7 3.7 4.0 0.8 0.2 0.4 1.0 0.7 0.5 1.5 4.0 2.0 0.3 0.5 0.3 0.2 0.0 0.8 0.5 0.1 0.1 0.0 0.0 0.0 0.0 0.0 0.0 0.0 0.0 0.0 0.1 0.1 0.0 0.0 0.0 0.0
0.1 1.5 0.0 0.0 0.0 0.0 0.1 0.0 0.7 7.8 6.0 1.8 0.5 2.2 4.2 0.8 0.3 0.6 0.7 4.0 0.7 1.0 0.9 1.3 4.0 1.6 1.0 0.6 0.6 0.6 0.0 0.1 0.0 0.0 0.0 0.0 0.0 0.1 0.1 0.1 0.1 0.1 0.0 0.0
1.3 3.0 0.0 0.0 0.0 0.0 0.0 0.0 0.0 3.1 0.9 5.7 4.4 4.5 2.8 0.5 0.9 0.6 3.2 2.5 2.7 1.4 1.8 3.4 3.7 1.5 0.8 4.7 7.3 2.4 1.6 0.2 0.1 0.0 0.0 0.1 0.0 0.0 0.1 0.1 0.0 0.1 0.1 0.0
2.1 9.7 0.0 0.0 0.0 0.0 0.0 0.0 1.5 4.2 21.1 16.5 1.0 7.4 12.6 8.9 5.1 6.2 9.6 6.7 5.4 2.8 2.4 2.6 5.7 1.9 1.8 8.5 6.9 2.9 0.8 1.2 0.7 0.0 0.0 0.1 0.1 0.2 0.2 0.1 0.1 0.2 0.2 0.2
0.0 6.8 0.0 0.0 0.0 0.0 0.0 0.0 0.2 0.2 1.5 11.0 11.7 11.9 3.6 9.6 9.4 10.0 12.1 10.9 7.0 5.4 6.2 3.7 4.9 2.8 1.8 4.2 7.5 6.2 4.1 4.6 4.4 1.7 0.6 0.2 0.9 0.2 0.2 0.3 0.8 1.2 0.9 0.8
0.2 3.9 3.6 0.7 0.0 0.0 0.0 0.0 0.1 9.7 7.1 7.6 13.9 18.5 6.1 2.2 3.2 4.1 7.3 11.7 9.0 5.4 8.6 6.4 3.9 3.9 2.7 3.0 3.4 6.4 6.6 8.1 8.5 7.1 5.3 1.7 2.3 2.2 1.4 1.8 1.6 1.9 2.0 0.6
0.1 6.8 8.3 4.2 0.0 0.0 0.1 0.0 2.3 9.3 11.2 22.1 28.6 26.1 2.7 1.9 2.5 3.4 6.2 7.9 9.2 7.6 6.4 7.9 6.6 4.2 5.3 3.5 6.3 5.9 6.1 4.4 5.8 10.4 11.8 4.0 5.1 3.9 4.8 5.8 4.5 4.5 3.9 2.8
0.0 5.6 7.5 10.1 5.9 4.1 7.3 3.7 1.7 7.0 28.4 16.6 12.8 11.3 4.2 3.3 3.4 3.5 3.1 4.0 5.0 6.1 6.5 6.9 6.3 5.9 3.7 2.5 4.1 2.4 1.7 2.5 3.7 4.0 8.7 9.7 9.5 11.3 9.2 7.7 9.5 10.6 8.1 6.2
0.0 12.9 5.4 3.8 4.0 2.0 2.6 5.7 3.1 3.8 5.2 12.5 10.4 5.1 3.8 3.3 3.0 3.7 3.4 2.7 1.9 2.3 1.6 2.4 3.8 4.6 3.7 2.0 1.4 0.7 0.2 0.0 0.1 0.2 0.2 3.0 10.5 10.7 10.8 10.7 15.4 12.2 14.9 15.1
0.0 7.1 7.0 6.3 3.3 1.2 6.7 7.5 3.8 2.7 4.1 4.9 3.0 3.8 2.9 2.3 2.4 3.0 2.4 1.0 0.2 0.1 0.2 0.5 0.3 0.8 1.5 0.6 0.2 0.0 0.0 0.0 0.0 0.0 0.0 0.0 0.0 0.3 3.6 4.7 5.4 4.7 9.6 13.0
2.6 4.8 4.8 9.3 0.8 1.7 10.6 9.7 5.8 2.7 1.0 1.1 1.1 1.9 1.9 1.9 1.5 1.9 1.0 0.3 0.0 0.1 1.4 5.7 2.8 3.1 0.4 1.2 0.0 0.7 0.0 0.0 0.0 0.0 0.0 0.0 0.0 0.0 0.5 0.3 0.0 1.7 1.2 1.6
5.5 4.2 6.3 8.2 4.6 23.1 6.1 1.3 0.5 0.2 0.4 0.4 0.1 0.8 0.5 0.2 1.3 1.4 1.0 0.6 0.8 0.5 1.1 3.9 7.3 5.5 3.4 2.3 1.8 1.3 0.9 0.9 0.0 0.0 0.0 0.0 0.1 1.0 0.8 0.0 0.0 1.2 0.8 0.2
1.0 4.7 12.3 14.0 6.4 4.2 1.4 0.8 0.5 0.5 1.1 0.6 0.6 0.6 0.4 0.7 0.2 2.2 1.8 1.1 0.9 0.7 0.5 0.3 0.9 4.6 4.8 4.2 3.3 2.2 1.4 1.7 2.2 2.9 2.0 1.1 1.6 1.0 0.2 0.6 0.0 2.0 1.9 1.7
0.3 1.8 15.0 16.7 14.6 7.5 1.2 0.3 0.0 0.0 1.3 0.4 0.2 0.3 0.4 0.3 0.6 2.9 2.5 2.2 1.0 0.4 0.0 0.0 0.0 0.0 0.0 0.0 2.5 2.8 2.8 1.3 2.9 3.9 5.4 6.0 4.7 4.9 4.1 4.7 7.0 4.5 2.7 4.1
5.2 8.4 23.2 19.0 22.6 5.3 0.8 0.6 0.2 3.7 5.7 0.8 0.1 0.1 0.0 0.2 1.6 2.7 1.8 3.2 2.9 0.0 0.0 0.0 0.0 0.0 0.1 0.0 0.0 0.9 1.6 2.8 4.6 2.9 4.4 4.4 8.4 9.6 11.8 10.5 14.0 14.5 9.6 7.5
6.0 10.2 8.4 13.7 22.9 17.5 1.2 1.0 3.5 2.9 0.5 0.5 0.2 0.1 0.1 0.8 2.4 3.8 4.7 5.2 2.1 0.2 0.0 0.0 0.0 0.0 0.0 0.0 0.0 0.2 1.7 0.3 0.6 1.5 4.0 4.3 5.8 8.5 10.3 12.0 13.0 14.0 14.3 13.1
7.3 3.7 6.6 7.5 12.0 5.8 3.9 3.7 1.0 0.4 1.2 1.0 0.3 0.1 0.6 2.7 5.8 7.0 6.9 5.5 2.5 0.5 0.0 0.0 0.0 0.0 0.0 0.0 0.0 0.1 0.6 1.6 2.1 2.7 4.6 5.5 5.9 6.8 8.2 9.9 10.4 9.9 9.5 10.5
2.1 0.0 4.9 5.3 4.9 2.4 3.9 1.9 0.4 0.4 1.9 1.2 0.3 0.7 1.3 2.5 3.5 3.7 4.1 2.2 1.2 0.4 0.1 0.0 0.0 0.0 0.0 0.0 0.0 0.2 0.8 0.8 1.6 2.9 3.9 4.8 5.8 6.4 6.7 6.0 5.2 5.2 5.6 6.5
1.3 1.6 3.5 6.9 3.8 1.5 1.7 2.0 1.3 1.1 0.7 0.5 0.2 0.1 0.1 0.0 0.3 0.0 0.2 0.2 0.2 0.0 0.1 0.1 0.0 0.0 0.0 0.0 1.0 0.2 0.5 0.8 1.5 1.7 2.8 3.1 3.2 3.4 3.2 3.1 3.0 2.8 3.0 2.0
0.7 2.6 7.7 9.8 6.5 6.1 5.6 4.0 3.0 3.3 2.3 1.0 0.8 0.5 0.1 0.1 0.2 0.1 0.5 0.1 0.0 0.1 0.0 0.0 0.0 0.0 0.1 0.0 0.1 0.5 0.7 0.9 1.2 1.3 1.5 1.8 2.4 2.4 1.9 1.9 3.1 2.9 2.5 2.4